Observation data for Odell on 01/20/2019      Previous  Date  Next       Current Mesonet Observations  Soil Data  Daily Summary Page  Observations in Plain Language
KOD1 200600Z 06005KT M03/M07 A3038 RMK A01 T10321072  RH  074%=      5-min Rain = 0
KOD1 200601Z 07005KT M03/M07 A3038 RMK A01 T10331072  RH  074%=      5-min Rain = 0
KOD1 200602Z 07005KT M03/M07 A3038 RMK A01 T10331072  RH  075%=      5-min Rain = 0
KOD1 200603Z 08005KT M03/M07 A3037 RMK A01 T10331071  RH  075%=      5-min Rain = 0
KOD1 200604Z 09005KT M03/M07 A3037 RMK A01 T10321071  RH  075%=      5-min Rain = 0
KOD1 200605Z 09005KT M03/M07 A3037 RMK A01 T10311071  RH  074%=      5-min Rain = 0
KOD1 200606Z 10004KT M03/M07 A3037 RMK A01 T10311070  RH  074%=      5-min Rain = 0
KOD1 200607Z 11004KT M03/M07 A3037 RMK A01 T10311070  RH  075%=      5-min Rain = 0
KOD1 200608Z 10003KT M03/M07 A3037 RMK A01 T10311070  RH  075%=      5-min Rain = 0
KOD1 200609Z 09003KT M03/M07 A3038 RMK A01 T10311070  RH  075%=      5-min Rain = 0
KOD1 200610Z 09003KT M03/M07 A3038 RMK A01 T10311070  RH  075%=      5-min Rain = 0
KOD1 200611Z 09003KT M03/M07 A3037 RMK A01 T10311070  RH  074%=      5-min Rain = 0
KOD1 200612Z 08003KT M03/M07 A3037 RMK A01 T10321070  RH  074%=      5-min Rain = 0
KOD1 200613Z 08003KT M03/M07 A3037 RMK A01 T10321070  RH  075%=      5-min Rain = 0
KOD1 200614Z 06003KT M03/M07 A3037 RMK A01 T10321070  RH  075%=      5-min Rain = 0
KOD1 200615Z 06003KT M03/M07 A3038 RMK A01 T10311070  RH  075%=      5-min Rain = 0
KOD1 200616Z 05003KT M03/M07 A3038 RMK A01 T10311070  RH  074%=      5-min Rain = 0
KOD1 200617Z 04002KT M03/M07 A3038 RMK A01 T10321071  RH  074%=      5-min Rain = 0
KOD1 200618Z 04001KT M03/M07 A3038 RMK A01 T10321071  RH  074%=      5-min Rain = 0
KOD1 200619Z 05001KT M03/M07 A3038 RMK A01 T10321071  RH  074%=      5-min Rain = 0
KOD1 200620Z 07002KT M03/M07 A3038 RMK A01 T10321071  RH  074%=      5-min Rain = 0
KOD1 200621Z 08002KT M03/M07 A3038 RMK A01 T10321071  RH  074%=      5-min Rain = 0
KOD1 200622Z 07002KT M03/M07 A3038 RMK A01 T10321071  RH  074%=      5-min Rain = 0
KOD1 200623Z 06002KT M03/M07 A3038 RMK A01 T10331071  RH  075%=      5-min Rain = 0
KOD1 200624Z 05002KT M03/M07 A3038 RMK A01 T10331072  RH  075%=      5-min Rain = 0
KOD1 200625Z 05003KT M03/M07 A3038 RMK A01 T10341072  RH  075%=      5-min Rain = 0
KOD1 200626Z 06003KT M03/M07 A3038 RMK A01 T10341071  RH  076%=      5-min Rain = 0
KOD1 200627Z 06003KT M03/M07 A3038 RMK A01 T10341071  RH  076%=      5-min Rain = 0
KOD1 200628Z 06003KT M04/M07 A3038 RMK A01 T10351073  RH  075%=      5-min Rain = 0
KOD1 200629Z 05003KT M04/M08 A3039 RMK A01 T10371076  RH  075%=      5-min Rain = 0
KOD1 200630Z 05002KT M04/M08 A3039 RMK A01 T10391075  RH  076%=      5-min Rain = 0
KOD1 200631Z 05003KT M04/M07 A3038 RMK A01 T10401073  RH  077%=      5-min Rain = 0
KOD1 200632Z 06003KT M04/M07 A3038 RMK A01 T10391072  RH  078%=      5-min Rain = 0
KOD1 200633Z 07004KT M04/M07 A3038 RMK A01 T10391073  RH  077%=      5-min Rain = 0
KOD1 200634Z 07004KT M04/M08 A3038 RMK A01 T10411077  RH  076%=      5-min Rain = 0
KOD1 200635Z 07005KT M04/M08 A3037 RMK A01 T10441079  RH  077%=      5-min Rain = 0
KOD1 200636Z 07005KT M05/M08 A3037 RMK A01 T10461079  RH  078%=      5-min Rain = 0
KOD1 200637Z 07005KT M05/M08 A3037 RMK A01 T10481078  RH  080%=      5-min Rain = 0
KOD1 200638Z 07005KT M05/M08 A3037 RMK A01 T10491077  RH  081%=      5-min Rain = 0
KOD1 200639Z 08004KT M05/M08 A3037 RMK A01 T10491075  RH  082%=      5-min Rain = 0
KOD1 200640Z 09005KT M05/M07 A3037 RMK A01 T10481073  RH  083%=      5-min Rain = 0
KOD1 200641Z 09006KT M05/M07 A3037 RMK A01 T10481072  RH  083%=      5-min Rain = 0
KOD1 200642Z 10006KT M05/M07 A3036 RMK A01 T10471071  RH  083%=      5-min Rain = 0
KOD1 200643Z 10006KT M05/M07 A3036 RMK A01 T10461071  RH  083%=      5-min Rain = 0
KOD1 200644Z 10006KT M05/M07 A3036 RMK A01 T10461071  RH  083%=      5-min Rain = 0
KOD1 200645Z 10006KT M05/M07 A3036 RMK A01 T10451069  RH  083%=      5-min Rain = 0
KOD1 200646Z 10006KT M04/M07 A3036 RMK A01 T10441067  RH  084%=      5-min Rain = 0
KOD1 200647Z 09006KT M04/M06 A3037 RMK A01 T10421064  RH  084%=      5-min Rain = 0
KOD1 200648Z 09006KT M04/M06 A3037 RMK A01 T10401064  RH  084%=      5-min Rain = 0
KOD1 200649Z 09006KT M04/M06 A3037 RMK A01 T10381063  RH  083%=      5-min Rain = 0
KOD1 200650Z 08006KT M04/M06 A3037 RMK A01 T10371064  RH  082%=      5-min Rain = 0
KOD1 200651Z 08006KT M04/M07 A3037 RMK A01 T10371065  RH  081%=      5-min Rain = 0
KOD1 200652Z 08006KT M04/M07 A3037 RMK A01 T10371065  RH  081%=      5-min Rain = 0
KOD1 200653Z 08006KT M04/M07 A3037 RMK A01 T10361065  RH  081%=      5-min Rain = 0
KOD1 200654Z 08006KT M04/M07 A3037 RMK A01 T10361065  RH  080%=      5-min Rain = 0
KOD1 200655Z 08006KT M04/M07 A3037 RMK A01 T10361066  RH  080%=      5-min Rain = 0
KOD1 200656Z 08006KT M04/M07 A3037 RMK A01 T10361066  RH  079%=      5-min Rain = 0
KOD1 200657Z 08006KT M04/M07 A3037 RMK A01 T10361066  RH  079%=      5-min Rain = 0
KOD1 200658Z 08006KT M04/M07 A3037 RMK A01 T10361066  RH  079%=      5-min Rain = 0
KOD1 200659Z 08006KT M04/M07 A3037 RMK A01 T10361066  RH  079%=      5-min Rain = 0
KOD1 200700Z 09006KT M04/M07 A3036 RMK A01 T10361066  RH  079%=      5-min Rain = 0
KOD1 200701Z 09005KT M04/M07 A3036 RMK A01 T10361067  RH  079%=      5-min Rain = 0
KOD1 200702Z 09006KT M04/M07 A3036 RMK A01 T10361067  RH  080%=      5-min Rain = 0
KOD1 200703Z 09006KT M04/M07 A3036 RMK A01 T10371067  RH  080%=      5-min Rain = 0
KOD1 200704Z 09007KT M04/M07 A3036 RMK A01 T10371066  RH  080%=      5-min Rain = 0
KOD1 200705Z 08007KT M04/M07 A3036 RMK A01 T10361066  RH  080%=      5-min Rain = 0
KOD1 200706Z 08007KT M04/M07 A3036 RMK A01 T10361066  RH  080%=      5-min Rain = 0
KOD1 200707Z 08007KT M04/M07 A3036 RMK A01 T10371067  RH  080%=      5-min Rain = 0
KOD1 200708Z 08007KT M04/M07 A3036 RMK A01 T10371067  RH  080%=      5-min Rain = 0
KOD1 200709Z 08007KT M04/M07 A3036 RMK A01 T10371067  RH  080%=      5-min Rain = 0
KOD1 200710Z 08007KT M04/M07 A3036 RMK A01 T10371066  RH  080%=      5-min Rain = 0
KOD1 200711Z 08007KT M04/M07 A3037 RMK A01 T10371065  RH  080%=      5-min Rain = 0
KOD1 200712Z 08006KT M04/M07 A3037 RMK A01 T10361066  RH  080%=      5-min Rain = 0
KOD1 200713Z 08006KT M04/M07 A3037 RMK A01 T10361066  RH  080%=      5-min Rain = 0
KOD1 200714Z 07006KT M04/M07 A3037 RMK A01 T10361066  RH  079%=      5-min Rain = 0
KOD1 200715Z 07006KT M04/M07 A3037 RMK A01 T10361067  RH  079%=      5-min Rain = 0
KOD1 200716Z 07007KT M04/M07 A3037 RMK A01 T10361067  RH  079%=      5-min Rain = 0
KOD1 200717Z 07007KT M04/M07 A3036 RMK A01 T10361067  RH  079%=      5-min Rain = 0
KOD1 200718Z 07007KT M04/M07 A3036 RMK A01 T10361068  RH  079%=      5-min Rain = 0
KOD1 200719Z 07008KT M04/M07 A3035 RMK A01 T10361068  RH  079%=      5-min Rain = 0
KOD1 200720Z 07008KT M04/M07 A3035 RMK A01 T10361067  RH  079%=      5-min Rain = 0
KOD1 200721Z 07008KT M04/M07 A3035 RMK A01 T10361067  RH  079%=      5-min Rain = 0
KOD1 200722Z 07007KT M04/M07 A3035 RMK A01 T10361067  RH  079%=      5-min Rain = 0
KOD1 200723Z 07006KT M04/M07 A3035 RMK A01 T10361067  RH  079%=      5-min Rain = 0
KOD1 200724Z 07007KT M04/M07 A3035 RMK A01 T10361067  RH  079%=      5-min Rain = 0
KOD1 200725Z 07006KT M04/M07 A3035 RMK A01 T10351067  RH  078%=      5-min Rain = 0
KOD1 200726Z 07007KT M04/M07 A3035 RMK A01 T10351068  RH  078%=      5-min Rain = 0
KOD1 200727Z 07007KT M03/M07 A3036 RMK A01 T10341068  RH  078%=      5-min Rain = 0
KOD1 200728Z 07007KT M03/M07 A3036 RMK A01 T10341068  RH  078%=      5-min Rain = 0
KOD1 200729Z 07007KT M03/M07 A3036 RMK A01 T10341068  RH  077%=      5-min Rain = 0
KOD1 200730Z 07007KT M03/M07 A3036 RMK A01 T10341068  RH  077%=      5-min Rain = 0
KOD1 200731Z 07008KT M03/M07 A3036 RMK A01 T10341069  RH  077%=      5-min Rain = 0
KOD1 200732Z 07007KT M04/M07 A3035 RMK A01 T10351069  RH  077%=      5-min Rain = 0
KOD1 200733Z 07006KT M04/M07 A3035 RMK A01 T10351069  RH  077%=      5-min Rain = 0
KOD1 200734Z 07006KT M04/M07 A3035 RMK A01 T10361069  RH  078%=      5-min Rain = 0
KOD1 200735Z 07007KT M04/M07 A3035 RMK A01 T10361069  RH  078%=      5-min Rain = 0
KOD1 200736Z 07006KT M04/M07 A3035 RMK A01 T10361069  RH  078%=      5-min Rain = 0
KOD1 200737Z 07006KT M04/M07 A3036 RMK A01 T10361069  RH  078%=      5-min Rain = 0
KOD1 200738Z 07006KT M04/M07 A3035 RMK A01 T10371069  RH  078%=      5-min Rain = 0
KOD1 200739Z 07006KT M04/M07 A3035 RMK A01 T10371069  RH  078%=      5-min Rain = 0
KOD1 200740Z 07006KT M04/M07 A3035 RMK A01 T10371070  RH  078%=      5-min Rain = 0
KOD1 200741Z 06006KT M04/M07 A3035 RMK A01 T10381069  RH  078%=      5-min Rain = 0
KOD1 200742Z 07006KT M04/M07 A3035 RMK A01 T10381069  RH  079%=      5-min Rain = 0
KOD1 200743Z 06006KT M04/M07 A3035 RMK A01 T10381070  RH  079%=      5-min Rain = 0
KOD1 200744Z 06006KT M04/M07 A3035 RMK A01 T10381070  RH  079%=      5-min Rain = 0
KOD1 200745Z 07005KT M04/M07 A3035 RMK A01 T10381070  RH  079%=      5-min Rain = 0
KOD1 200746Z 07004KT M04/M07 A3035 RMK A01 T10381070  RH  079%=      5-min Rain = 0
KOD1 200747Z 07005KT M04/M07 A3035 RMK A01 T10381070  RH  079%=      5-min Rain = 0
KOD1 200748Z 08005KT M04/M07 A3035 RMK A01 T10391070  RH  079%=      5-min Rain = 0
KOD1 200749Z 08005KT M04/M07 A3035 RMK A01 T10391070  RH  079%=      5-min Rain = 0
KOD1 200750Z 08005KT M04/M07 A3035 RMK A01 T10391070  RH  079%=      5-min Rain = 0
KOD1 200751Z 08005KT M04/M07 A3035 RMK A01 T10391070  RH  079%=      5-min Rain = 0
KOD1 200752Z 08005KT M04/M07 A3035 RMK A01 T10391070  RH  079%=      5-min Rain = 0
KOD1 200753Z 08005KT M04/M07 A3035 RMK A01 T10401070  RH  079%=      5-min Rain = 0
KOD1 200754Z 08005KT M04/M07 A3035 RMK A01 T10401071  RH  079%=      5-min Rain = 0
KOD1 200755Z 08005KT M04/M07 A3035 RMK A01 T10411071  RH  080%=      5-min Rain = 0
KOD1 200756Z 08004KT M04/M07 A3035 RMK A01 T10411071  RH  080%=      5-min Rain = 0
KOD1 200757Z 08004KT M04/M07 A3035 RMK A01 T10421072  RH  080%=      5-min Rain = 0
KOD1 200758Z 08004KT M04/M07 A3035 RMK A01 T10421072  RH  080%=      5-min Rain = 0
KOD1 200759Z 08004KT M04/M07 A3035 RMK A01 T10431072  RH  080%=      5-min Rain = 0
KOD1 200800Z 08003KT M04/M07 A3035 RMK A01 T10431072  RH  080%=      5-min Rain = 0
KOD1 200801Z 09004KT M04/M07 A3035 RMK A01 T10431071  RH  080%=      5-min Rain = 0
KOD1 200802Z 09004KT M04/M07 A3035 RMK A01 T10431071  RH  081%=      5-min Rain = 0
KOD1 200803Z 11005KT M04/M07 A3035 RMK A01 T10431072  RH  080%=      5-min Rain = 0
KOD1 200804Z 11005KT M04/M07 A3034 RMK A01 T10441072  RH  081%=      5-min Rain = 0
KOD1 200805Z 11005KT M04/M07 A3034 RMK A01 T10441071  RH  081%=      5-min Rain = 0
KOD1 200806Z 11005KT M04/M07 A3034 RMK A01 T10431070  RH  081%=      5-min Rain = 0
KOD1 200807Z 11005KT M04/M07 A3034 RMK A01 T10431070  RH  082%=      5-min Rain = 0
KOD1 200808Z 11004KT M04/M07 A3034 RMK A01 T10421070  RH  081%=      5-min Rain = 0
KOD1 200809Z 11004KT M04/M07 A3034 RMK A01 T10421069  RH  081%=      5-min Rain = 0
KOD1 200810Z 10004KT M04/M07 A3034 RMK A01 T10421069  RH  082%=      5-min Rain = 0
KOD1 200811Z 11004KT M04/M07 A3034 RMK A01 T10421069  RH  082%=      5-min Rain = 0
KOD1 200812Z 11004KT M04/M07 A3035 RMK A01 T10421069  RH  082%=      5-min Rain = 0
KOD1 200813Z 11003KT M04/M07 A3035 RMK A01 T10421069  RH  082%=      5-min Rain = 0
KOD1 200814Z 12003KT M04/M07 A3035 RMK A01 T10421069  RH  081%=      5-min Rain = 0
KOD1 200815Z 12002KT M04/M07 A3036 RMK A01 T10421069  RH  082%=      5-min Rain = 0
KOD1 200816Z 14001KT M04/M07 A3036 RMK A01 T10421068  RH  082%=      5-min Rain = 0
KOD1 200817Z 16001KT M04/M07 A3036 RMK A01 T10421068  RH  082%=      5-min Rain = 0
KOD1 200818Z 21001KT M04/M07 A3036 RMK A01 T10411068  RH  082%=      5-min Rain = 0
KOD1 200819Z 25002KT M04/M07 A3036 RMK A01 T10411068  RH  081%=      5-min Rain = 0
KOD1 200820Z 26003KT M04/M07 A3036 RMK A01 T10421070  RH  080%=      5-min Rain = 0
KOD1 200821Z 25004KT M04/M07 A3037 RMK A01 T10431072  RH  080%=      5-min Rain = 0
KOD1 200822Z 25004KT M05/M07 A3037 RMK A01 T10451073  RH  081%=      5-min Rain = 0
KOD1 200823Z 24003KT M05/M07 A3037 RMK A01 T10471074  RH  082%=      5-min Rain = 0
KOD1 200824Z 22002KT M05/M07 A3037 RMK A01 T10481074  RH  082%=      5-min Rain = 0
KOD1 200825Z 20002KT M05/M07 A3037 RMK A01 T10491073  RH  083%=      5-min Rain = 0
KOD1 200826Z 18002KT M05/M07 A3037 RMK A01 T10491071  RH  084%=      5-min Rain = 0
KOD1 200827Z 17002KT M05/M07 A3036 RMK A01 T10481070  RH  085%=      5-min Rain = 0
KOD1 200828Z 16003KT M05/M07 A3036 RMK A01 T10471069  RH  085%=      5-min Rain = 0
KOD1 200829Z 18002KT M05/M07 A3036 RMK A01 T10461068  RH  085%=      5-min Rain = 0
KOD1 200830Z 20002KT M05/M07 A3036 RMK A01 T10451067  RH  085%=      5-min Rain = 0
KOD1 200831Z 21002KT M05/M07 A3036 RMK A01 T10451066  RH  085%=      5-min Rain = 0
KOD1 200832Z 22002KT M04/M07 A3036 RMK A01 T10441066  RH  085%=      5-min Rain = 0
KOD1 200833Z 23003KT M04/M07 A3036 RMK A01 T10441066  RH  084%=      5-min Rain = 0
KOD1 200834Z 23003KT M04/M07 A3037 RMK A01 T10441067  RH  084%=      5-min Rain = 0
KOD1 200835Z 22003KT M04/M07 A3037 RMK A01 T10441068  RH  083%=      5-min Rain = 0
KOD1 200836Z 22002KT M05/M07 A3037 RMK A01 T10451071  RH  082%=      5-min Rain = 0
KOD1 200837Z 22002KT M05/M07 A3037 RMK A01 T10471073  RH  082%=      5-min Rain = 0
KOD1 200838Z 23003KT M05/M07 A3037 RMK A01 T10491074  RH  083%=      5-min Rain = 0
KOD1 200839Z 24003KT M05/M07 A3037 RMK A01 T10501074  RH  083%=      5-min Rain = 0
KOD1 200840Z 22003KT M05/M07 A3037 RMK A01 T10511074  RH  084%=      5-min Rain = 0
KOD1 200841Z 21004KT M05/M08 A3037 RMK A01 T10521075  RH  084%=      5-min Rain = 0
KOD1 200842Z 22004KT M05/M08 A3037 RMK A01 T10531075  RH  084%=      5-min Rain = 0
KOD1 200843Z 22003KT M05/M08 A3037 RMK A01 T10531076  RH  084%=      5-min Rain = 0
KOD1 200844Z 22003KT M05/M08 A3037 RMK A01 T10541077  RH  084%=      5-min Rain = 0
KOD1 200845Z 23003KT M06/M08 A3037 RMK A01 T10551078  RH  084%=      5-min Rain = 0
KOD1 200846Z 24003KT M06/M08 A3037 RMK A01 T10561078  RH  084%=      5-min Rain = 0
KOD1 200847Z 25003KT M06/M08 A3037 RMK A01 T10571078  RH  085%=      5-min Rain = 0
KOD1 200848Z 24003KT M06/M08 A3037 RMK A01 T10561076  RH  086%=      5-min Rain = 0
KOD1 200849Z 24004KT M06/M08 A3037 RMK A01 T10561076  RH  086%=      5-min Rain = 0
KOD1 200850Z 23004KT M06/M08 A3037 RMK A01 T10561076  RH  086%=      5-min Rain = 0
KOD1 200851Z 23004KT M06/M08 A3038 RMK A01 T10571076  RH  086%=      5-min Rain = 0
KOD1 200852Z 23004KT M06/M08 A3038 RMK A01 T10571076  RH  087%=      5-min Rain = 0
KOD1 200853Z 23003KT M06/M08 A3038 RMK A01 T10571077  RH  086%=      5-min Rain = 0
KOD1 200854Z 23002KT M06/M08 A3037 RMK A01 T10581077  RH  086%=      5-min Rain = 0
KOD1 200855Z 24002KT M06/M08 A3037 RMK A01 T10581077  RH  086%=      5-min Rain = 0
KOD1 200856Z 25002KT M06/M08 A3037 RMK A01 T10591077  RH  087%=      5-min Rain = 0
KOD1 200857Z 25002KT M06/M08 A3037 RMK A01 T10581076  RH  087%=      5-min Rain = 0
KOD1 200858Z 25002KT M06/M07 A3037 RMK A01 T10581074  RH  088%=      5-min Rain = 0
KOD1 200859Z 25002KT M06/M07 A3038 RMK A01 T10571073  RH  088%=      5-min Rain = 0
KOD1 200900Z 25002KT M06/M07 A3038 RMK A01 T10561073  RH  088%=      5-min Rain = 0
KOD1 200901Z 24003KT M06/M07 A3038 RMK A01 T10561072  RH  088%=      5-min Rain = 0
KOD1 200902Z 24003KT M06/M07 A3038 RMK A01 T10551071  RH  088%=      5-min Rain = 0
KOD1 200903Z 25004KT M06/M07 A3038 RMK A01 T10551071  RH  088%=      5-min Rain = 0
KOD1 200904Z 25004KT M06/M07 A3038 RMK A01 T10551072  RH  088%=      5-min Rain = 0
KOD1 200905Z 25004KT M06/M07 A3037 RMK A01 T10551073  RH  087%=      5-min Rain = 0
KOD1 200906Z 26004KT M06/M07 A3037 RMK A01 T10561074  RH  087%=      5-min Rain = 0
KOD1 200907Z 26004KT M06/M07 A3037 RMK A01 T10571074  RH  088%=      5-min Rain = 0
KOD1 200908Z 25004KT M06/M07 A3037 RMK A01 T10571073  RH  088%=      5-min Rain = 0
KOD1 200909Z 25004KT M06/M07 A3038 RMK A01 T10571073  RH  088%=      5-min Rain = 0
KOD1 200910Z 24004KT M06/M07 A3038 RMK A01 T10571073  RH  088%=      5-min Rain = 0
KOD1 200911Z 24004KT M06/M07 A3038 RMK A01 T10571073  RH  088%=      5-min Rain = 0
KOD1 200912Z 25004KT M06/M07 A3038 RMK A01 T10571073  RH  088%=      5-min Rain = 0
KOD1 200913Z 25004KT M06/M07 A3038 RMK A01 T10571073  RH  088%=      5-min Rain = 0
KOD1 200914Z 25004KT M06/M07 A3038 RMK A01 T10571074  RH  088%=      5-min Rain = 0
KOD1 200915Z 25003KT M06/M07 A3038 RMK A01 T10581074  RH  088%=      5-min Rain = 0
KOD1 200916Z 25003KT M06/M08 A3037 RMK A01 T10581075  RH  088%=      5-min Rain = 0
KOD1 200917Z 25003KT M06/M08 A3037 RMK A01 T10581075  RH  088%=      5-min Rain = 0
KOD1 200918Z 23003KT M06/M08 A3037 RMK A01 T10591075  RH  088%=      5-min Rain = 0
KOD1 200919Z 23002KT M06/M08 A3037 RMK A01 T10591076  RH  088%=      5-min Rain = 0
KOD1 200920Z 22003KT M06/M08 A3037 RMK A01 T10591076  RH  088%=      5-min Rain = 0
KOD1 200921Z 21003KT M06/M08 A3037 RMK A01 T10591075  RH  089%=      5-min Rain = 0
KOD1 200922Z 21003KT M06/M07 A3037 RMK A01 T10591074  RH  089%=      5-min Rain = 0
KOD1 200923Z 20003KT M06/M07 A3037 RMK A01 T10581072  RH  090%=      5-min Rain = 0
KOD1 200924Z 19002KT M06/M07 A3037 RMK A01 T10571072  RH  089%=      5-min Rain = 0
KOD1 200925Z 20002KT M06/M07 A3037 RMK A01 T10571072  RH  089%=      5-min Rain = 0
KOD1 200926Z 20002KT M06/M07 A3036 RMK A01 T10571072  RH  089%=      5-min Rain = 0
KOD1 200927Z 19002KT M06/M07 A3036 RMK A01 T10561071  RH  090%=      5-min Rain = 0
KOD1 200928Z 18003KT M06/M07 A3036 RMK A01 T10561070  RH  090%=      5-min Rain = 0
KOD1 200929Z 18003KT M06/M07 A3036 RMK A01 T10561070  RH  090%=      5-min Rain = 0
KOD1 200930Z 19003KT M06/M07 A3036 RMK A01 T10561070  RH  090%=      5-min Rain = 0
KOD1 200931Z 20003KT M06/M07 A3036 RMK A01 T10561069  RH  090%=      5-min Rain = 0
KOD1 200932Z 20003KT M06/M07 A3036 RMK A01 T10551067  RH  091%=      5-min Rain = 0
KOD1 200933Z 19003KT M05/M07 A3036 RMK A01 T10541066  RH  091%=      5-min Rain = 0
KOD1 200934Z 19003KT M05/M07 A3036 RMK A01 T10531066  RH  091%=      5-min Rain = 0
KOD1 200935Z 19004KT M05/M07 A3036 RMK A01 T10531065  RH  091%=      5-min Rain = 0
KOD1 200936Z 20004KT M05/M07 A3036 RMK A01 T10521065  RH  091%=      5-min Rain = 0
KOD1 200937Z 21004KT M05/M06 A3036 RMK A01 T10521064  RH  091%=      5-min Rain = 0
KOD1 200938Z 21004KT M05/M06 A3036 RMK A01 T10511064  RH  091%=      5-min Rain = 0
KOD1 200939Z 21004KT M05/M06 A3036 RMK A01 T10511064  RH  091%=      5-min Rain = 0
KOD1 200940Z 21003KT M05/M06 A3036 RMK A01 T10511063  RH  091%=      5-min Rain = 0
KOD1 200941Z 21003KT M05/M06 A3036 RMK A01 T10501063  RH  091%=      5-min Rain = 0
KOD1 200942Z 21003KT M05/M06 A3036 RMK A01 T10501063  RH  091%=      5-min Rain = 0
KOD1 200943Z 22004KT M05/M06 A3037 RMK A01 T10501062  RH  091%=      5-min Rain = 0
KOD1 200944Z 22004KT M05/M06 A3037 RMK A01 T10491062  RH  090%=      5-min Rain = 0
KOD1 200945Z 22005KT M05/M06 A3037 RMK A01 T10481063  RH  090%=      5-min Rain = 0
KOD1 200946Z 22005KT M05/M06 A3037 RMK A01 T10481064  RH  089%=      5-min Rain = 0
KOD1 200947Z 23005KT M05/M06 A3037 RMK A01 T10491064  RH  089%=      5-min Rain = 0
KOD1 200948Z 23005KT M05/M06 A3036 RMK A01 T10481064  RH  089%=      5-min Rain = 0
KOD1 200949Z 23005KT M05/M06 A3037 RMK A01 T10481064  RH  089%=      5-min Rain = 0
KOD1 200950Z 23006KT M05/M06 A3037 RMK A01 T10481064  RH  089%=      5-min Rain = 0
KOD1 200951Z 23006KT M05/M07 A3037 RMK A01 T10481065  RH  089%=      5-min Rain = 0
KOD1 200952Z 22005KT M05/M07 A3037 RMK A01 T10491065  RH  089%=      5-min Rain = 0
KOD1 200953Z 23004KT M05/M07 A3036 RMK A01 T10491065  RH  089%=      5-min Rain = 0
KOD1 200954Z 23004KT M05/M07 A3036 RMK A01 T10491065  RH  089%=      5-min Rain = 0
KOD1 200955Z 23004KT M05/M07 A3036 RMK A01 T10501066  RH  089%=      5-min Rain = 0
KOD1 200956Z 23004KT M05/M07 A3036 RMK A01 T10501066  RH  089%=      5-min Rain = 0
KOD1 200957Z 23004KT M05/M07 A3036 RMK A01 T10511067  RH  089%=      5-min Rain = 0
KOD1 200958Z 22004KT M05/M07 A3036 RMK A01 T10511067  RH  089%=      5-min Rain = 0
KOD1 200959Z 22004KT M05/M07 A3036 RMK A01 T10521067  RH  089%=      5-min Rain = 0
KOD1 201000Z 22003KT M05/M07 A3036 RMK A01 T10521067  RH  089%=      5-min Rain = 0
KOD1 201001Z 21003KT M05/M07 A3035 RMK A01 T10521066  RH  090%=      5-min Rain = 0
KOD1 201002Z 21003KT M05/M07 A3035 RMK A01 T10521066  RH  090%=      5-min Rain = 0
KOD1 201003Z 22004KT M05/M07 A3036 RMK A01 T10521066  RH  090%=      5-min Rain = 0
KOD1 201004Z 22004KT M05/M07 A3036 RMK A01 T10521066  RH  090%=      5-min Rain = 0
KOD1 201005Z 23004KT M05/M07 A3036 RMK A01 T10521066  RH  090%=      5-min Rain = 0
KOD1 201006Z 23004KT M05/M07 A3036 RMK A01 T10521067  RH  089%=      5-min Rain = 0
KOD1 201007Z 23003KT M05/M07 A3036 RMK A01 T10521067  RH  089%=      5-min Rain = 0
KOD1 201008Z 22003KT M05/M07 A3035 RMK A01 T10521067  RH  089%=      5-min Rain = 0
KOD1 201009Z 22003KT M05/M07 A3035 RMK A01 T10521067  RH  089%=      5-min Rain = 0
KOD1 201010Z 21003KT M05/M07 A3035 RMK A01 T10521067  RH  089%=      5-min Rain = 0
KOD1 201011Z 20002KT M05/M07 A3035 RMK A01 T10521067  RH  089%=      5-min Rain = 0
KOD1 201012Z 19002KT M05/M07 A3035 RMK A01 T10521067  RH  090%=      5-min Rain = 0
KOD1 201013Z 19002KT M05/M07 A3035 RMK A01 T10521067  RH  090%=      5-min Rain = 0
KOD1 201014Z 20003KT M05/M07 A3035 RMK A01 T10521066  RH  090%=      5-min Rain = 0
KOD1 201015Z 20003KT M05/M07 A3036 RMK A01 T10521066  RH  090%=      5-min Rain = 0
KOD1 201016Z 19003KT M05/M07 A3036 RMK A01 T10521066  RH  089%=      5-min Rain = 0
KOD1 201017Z 18003KT M05/M07 A3035 RMK A01 T10521066  RH  089%=      5-min Rain = 0
KOD1 201018Z 18003KT M05/M07 A3035 RMK A01 T10511066  RH  090%=      5-min Rain = 0
KOD1 201019Z 17003KT M05/M07 A3035 RMK A01 T10511065  RH  090%=      5-min Rain = 0
KOD1 201020Z 17003KT M05/M07 A3035 RMK A01 T10511065  RH  090%=      5-min Rain = 0
KOD1 201021Z 19003KT M05/M07 A3035 RMK A01 T10511065  RH  090%=      5-min Rain = 0
KOD1 201022Z 20003KT M05/M07 A3035 RMK A01 T10501065  RH  090%=      5-min Rain = 0
KOD1 201023Z 20003KT M05/M07 A3035 RMK A01 T10501065  RH  090%=      5-min Rain = 0
KOD1 201024Z 21003KT M05/M07 A3035 RMK A01 T10501065  RH  090%=      5-min Rain = 0
KOD1 201025Z 20003KT M05/M06 A3035 RMK A01 T10501064  RH  090%=      5-min Rain = 0
KOD1 201026Z 20003KT M05/M06 A3035 RMK A01 T10501064  RH  090%=      5-min Rain = 0
KOD1 201027Z 21004KT M05/M06 A3035 RMK A01 T10501064  RH  090%=      5-min Rain = 0
KOD1 201028Z 20003KT M05/M06 A3035 RMK A01 T10501064  RH  090%=      5-min Rain = 0
KOD1 201029Z 20003KT M05/M06 A3036 RMK A01 T10501064  RH  090%=      5-min Rain = 0
KOD1 201030Z 20003KT M05/M06 A3036 RMK A01 T10501064  RH  090%=      5-min Rain = 0
KOD1 201031Z 21003KT M05/M06 A3036 RMK A01 T10491063  RH  090%=      5-min Rain = 0
KOD1 201032Z 21004KT M05/M06 A3036 RMK A01 T10491063  RH  090%=      5-min Rain = 0
KOD1 201033Z 21004KT M05/M06 A3036 RMK A01 T10491063  RH  090%=      5-min Rain = 0
KOD1 201034Z 21004KT M05/M06 A3036 RMK A01 T10491063  RH  090%=      5-min Rain = 0
KOD1 201035Z 22003KT M05/M06 A3036 RMK A01 T10491063  RH  090%=      5-min Rain = 0
KOD1 201036Z 23003KT M05/M06 A3036 RMK A01 T10501064  RH  090%=      5-min Rain = 0
KOD1 201037Z 23004KT M05/M07 A3036 RMK A01 T10501065  RH  089%=      5-min Rain = 0
KOD1 201038Z 23004KT M05/M07 A3036 RMK A01 T10511066  RH  089%=      5-min Rain = 0
KOD1 201039Z 23004KT M05/M07 A3036 RMK A01 T10521067  RH  089%=      5-min Rain = 0
KOD1 201040Z 23004KT M05/M07 A3036 RMK A01 T10531068  RH  089%=      5-min Rain = 0
KOD1 201041Z 23004KT M05/M07 A3036 RMK A01 T10541068  RH  089%=      5-min Rain = 0
KOD1 201042Z 23004KT M05/M07 A3036 RMK A01 T10541069  RH  090%=      5-min Rain = 0
KOD1 201043Z 23004KT M06/M07 A3036 RMK A01 T10551069  RH  090%=      5-min Rain = 0
KOD1 201044Z 22004KT M06/M07 A3036 RMK A01 T10561069  RH  090%=      5-min Rain = 0
KOD1 201045Z 22005KT M06/M07 A3035 RMK A01 T10561069  RH  091%=      5-min Rain = 0
KOD1 201046Z 22005KT M06/M07 A3035 RMK A01 T10561069  RH  091%=      5-min Rain = 0
KOD1 201047Z 22005KT M06/M07 A3035 RMK A01 T10561069  RH  091%=      5-min Rain = 0
KOD1 201048Z 22004KT M06/M07 A3035 RMK A01 T10561069  RH  091%=      5-min Rain = 0
KOD1 201049Z 22004KT M06/M07 A3035 RMK A01 T10561069  RH  091%=      5-min Rain = 0
KOD1 201050Z 22004KT M06/M07 A3035 RMK A01 T10561069  RH  091%=      5-min Rain = 0
KOD1 201051Z 22004KT M06/M07 A3035 RMK A01 T10561069  RH  091%=      5-min Rain = 0
KOD1 201052Z 23004KT M06/M07 A3035 RMK A01 T10561068  RH  091%=      5-min Rain = 0
KOD1 201053Z 23004KT M06/M07 A3035 RMK A01 T10561068  RH  091%=      5-min Rain = 0
KOD1 201054Z 22004KT M06/M07 A3035 RMK A01 T10561068  RH  091%=      5-min Rain = 0
KOD1 201055Z 22004KT M06/M07 A3035 RMK A01 T10561068  RH  091%=      5-min Rain = 0
KOD1 201056Z 23004KT M06/M07 A3035 RMK A01 T10561068  RH  091%=      5-min Rain = 0
KOD1 201057Z 23003KT M06/M07 A3035 RMK A01 T10561068  RH  091%=      5-min Rain = 0
KOD1 201058Z 23004KT M06/M07 A3035 RMK A01 T10561068  RH  092%=      5-min Rain = 0
KOD1 201059Z 23004KT M06/M07 A3035 RMK A01 T10561068  RH  092%=      5-min Rain = 0
KOD1 201100Z 23004KT M06/M07 A3035 RMK A01 T10561068  RH  092%=      5-min Rain = 0
KOD1 201101Z 23004KT M06/M07 A3035 RMK A01 T10561068  RH  091%=      5-min Rain = 0
KOD1 201102Z 23004KT M06/M07 A3035 RMK A01 T10561068  RH  091%=      5-min Rain = 0
KOD1 201103Z 23004KT M06/M07 A3035 RMK A01 T10561068  RH  091%=      5-min Rain = 0
KOD1 201104Z 24004KT M06/M07 A3035 RMK A01 T10571069  RH  091%=      5-min Rain = 0
KOD1 201105Z 23004KT M06/M07 A3035 RMK A01 T10571070  RH  091%=      5-min Rain = 0
KOD1 201106Z 23004KT M06/M07 A3035 RMK A01 T10581070  RH  091%=      5-min Rain = 0
KOD1 201107Z 22004KT M06/M07 A3035 RMK A01 T10581070  RH  091%=      5-min Rain = 0
KOD1 201108Z 22004KT M06/M07 A3035 RMK A01 T10571069  RH  092%=      5-min Rain = 0
KOD1 201109Z 23004KT M06/M07 A3035 RMK A01 T10571068  RH  092%=      5-min Rain = 0
KOD1 201110Z 23004KT M06/M07 A3035 RMK A01 T10561067  RH  092%=      5-min Rain = 0
KOD1 201111Z 23004KT M06/M07 A3034 RMK A01 T10561067  RH  092%=      5-min Rain = 0
KOD1 201112Z 22004KT M06/M07 A3034 RMK A01 T10561067  RH  092%=      5-min Rain = 0
KOD1 201113Z 22004KT M06/M07 A3034 RMK A01 T10551066  RH  092%=      5-min Rain = 0
KOD1 201114Z 22004KT M06/M07 A3034 RMK A01 T10551066  RH  092%=      5-min Rain = 0
KOD1 201115Z 22003KT M05/M07 A3034 RMK A01 T10541065  RH  092%=      5-min Rain = 0
KOD1 201116Z 22003KT M05/M07 A3034 RMK A01 T10541065  RH  092%=      5-min Rain = 0
KOD1 201117Z 22003KT M05/M07 A3034 RMK A01 T10541066  RH  092%=      5-min Rain = 0
KOD1 201118Z 22003KT M05/M07 A3034 RMK A01 T10541065  RH  092%=      5-min Rain = 0
KOD1 201119Z 22003KT M05/M07 A3034 RMK A01 T10541065  RH  092%=      5-min Rain = 0
KOD1 201120Z 22003KT M05/M07 A3034 RMK A01 T10541066  RH  092%=      5-min Rain = 0
KOD1 201121Z 22003KT M05/M07 A3034 RMK A01 T10541066  RH  091%=      5-min Rain = 0
KOD1 201122Z 22003KT M05/M07 A3034 RMK A01 T10541066  RH  092%=      5-min Rain = 0
KOD1 201123Z 23003KT M05/M07 A3034 RMK A01 T10541066  RH  092%=      5-min Rain = 0
KOD1 201124Z 22004KT M05/M07 A3034 RMK A01 T10541066  RH  091%=      5-min Rain = 0
KOD1 201125Z 22004KT M06/M07 A3034 RMK A01 T10551066  RH  091%=      5-min Rain = 0
KOD1 201126Z 22004KT M06/M07 A3034 RMK A01 T10551066  RH  091%=      5-min Rain = 0
KOD1 201127Z 22004KT M05/M07 A3034 RMK A01 T10541066  RH  092%=      5-min Rain = 0
KOD1 201128Z 22004KT M05/M07 A3034 RMK A01 T10541066  RH  092%=      5-min Rain = 0
KOD1 201129Z 22004KT M05/M07 A3033 RMK A01 T10541065  RH  092%=      5-min Rain = 0
KOD1 201130Z 22005KT M05/M07 A3033 RMK A01 T10541066  RH  091%=      5-min Rain = 0
KOD1 201131Z 22005KT M05/M07 A3034 RMK A01 T10531066  RH  091%=      5-min Rain = 0
KOD1 201132Z 22005KT M05/M07 A3034 RMK A01 T10531066  RH  091%=      5-min Rain = 0
KOD1 201133Z 22005KT M05/M07 A3034 RMK A01 T10531066  RH  091%=      5-min Rain = 0
KOD1 201134Z 22004KT M05/M07 A3034 RMK A01 T10531066  RH  091%=      5-min Rain = 0
KOD1 201135Z 22004KT M05/M07 A3034 RMK A01 T10531066  RH  091%=      5-min Rain = 0
KOD1 201136Z 22004KT M05/M07 A3034 RMK A01 T10531066  RH  091%=      5-min Rain = 0
KOD1 201137Z 22004KT M05/M07 A3034 RMK A01 T10531066  RH  091%=      5-min Rain = 0
KOD1 201138Z 22005KT M05/M07 A3034 RMK A01 T10531066  RH  091%=      5-min Rain = 0
KOD1 201139Z 22005KT M05/M07 A3033 RMK A01 T10531066  RH  091%=      5-min Rain = 0
KOD1 201140Z 23004KT M05/M07 A3033 RMK A01 T10531066  RH  091%=      5-min Rain = 0
KOD1 201141Z 22004KT M05/M07 A3033 RMK A01 T10531066  RH  091%=      5-min Rain = 0
KOD1 201142Z 22004KT M05/M07 A3034 RMK A01 T10531066  RH  091%=      5-min Rain = 0
KOD1 201143Z 23004KT M05/M07 A3034 RMK A01 T10531066  RH  091%=      5-min Rain = 0
KOD1 201144Z 22004KT M05/M07 A3034 RMK A01 T10541067  RH  091%=      5-min Rain = 0
KOD1 201145Z 22004KT M05/M07 A3034 RMK A01 T10541067  RH  091%=      5-min Rain = 0
KOD1 201146Z 21003KT M05/M07 A3034 RMK A01 T10541067  RH  091%=      5-min Rain = 0
KOD1 201147Z 21003KT M05/M07 A3034 RMK A01 T10541066  RH  091%=      5-min Rain = 0
KOD1 201148Z 21004KT M05/M07 A3034 RMK A01 T10541066  RH  091%=      5-min Rain = 0
KOD1 201149Z 22004KT M05/M07 A3034 RMK A01 T10531065  RH  092%=      5-min Rain = 0
KOD1 201150Z 22004KT M05/M06 A3034 RMK A01 T10531064  RH  092%=      5-min Rain = 0
KOD1 201151Z 22004KT M05/M07 A3034 RMK A01 T10531065  RH  091%=      5-min Rain = 0
KOD1 201152Z 22003KT M05/M07 A3034 RMK A01 T10531065  RH  091%=      5-min Rain = 0
KOD1 201153Z 22003KT M05/M07 A3034 RMK A01 T10531065  RH  091%=      5-min Rain = 0
KOD1 201154Z 22003KT M05/M07 A3034 RMK A01 T10531065  RH  091%=      5-min Rain = 0
KOD1 201155Z 22002KT M05/M07 A3034 RMK A01 T10531066  RH  091%=      5-min Rain = 0
KOD1 201156Z 23002KT M05/M07 A3034 RMK A01 T10531066  RH  091%=      5-min Rain = 0
KOD1 201157Z 23002KT M05/M07 A3034 RMK A01 T10531066  RH  091%=      5-min Rain = 0
KOD1 201158Z 22003KT M05/M07 A3034 RMK A01 T10531066  RH  091%=      5-min Rain = 0
KOD1 201159Z 21003KT M05/M07 A3034 RMK A01 T10531066  RH  091%=      5-min Rain = 0
KOD1 201200Z 21004KT M05/M07 A3035 RMK A01 T10531065  RH  091%=      5-min Rain = 0
KOD1 201201Z 21004KT M05/M07 A3035 RMK A01 T10531065  RH  091%=      5-min Rain = 0
KOD1 201202Z 20003KT M05/M07 A3034 RMK A01 T10531065  RH  091%=      5-min Rain = 0
KOD1 201203Z 20003KT M05/M07 A3034 RMK A01 T10531065  RH  091%=      5-min Rain = 0
KOD1 201204Z 21003KT M05/M07 A3034 RMK A01 T10531065  RH  091%=      5-min Rain = 0
KOD1 201205Z 21003KT M05/M06 A3034 RMK A01 T10521064  RH  091%=      5-min Rain = 0
KOD1 201206Z 21004KT M05/M06 A3034 RMK A01 T10521064  RH  091%=      5-min Rain = 0
KOD1 201207Z 20003KT M05/M06 A3034 RMK A01 T10521064  RH  091%=      5-min Rain = 0
KOD1 201208Z 19003KT M05/M06 A3034 RMK A01 T10511064  RH  091%=      5-min Rain = 0
KOD1 201209Z 19003KT M05/M06 A3034 RMK A01 T10511063  RH  091%=      5-min Rain = 0
KOD1 201210Z 19002KT M05/M06 A3034 RMK A01 T10511063  RH  091%=      5-min Rain = 0
KOD1 201211Z 19002KT M05/M06 A3034 RMK A01 T10511063  RH  091%=      5-min Rain = 0
KOD1 201212Z 19003KT M05/M06 A3034 RMK A01 T10501063  RH  091%=      5-min Rain = 0
KOD1 201213Z 20003KT M05/M06 A3034 RMK A01 T10501062  RH  091%=      5-min Rain = 0
KOD1 201214Z 20003KT M05/M06 A3034 RMK A01 T10501062  RH  091%=      5-min Rain = 0
KOD1 201215Z 20003KT M05/M06 A3034 RMK A01 T10491062  RH  091%=      5-min Rain = 0
KOD1 201216Z 20004KT M05/M06 A3034 RMK A01 T10491062  RH  091%=      5-min Rain = 0
KOD1 201217Z 20003KT M05/M06 A3034 RMK A01 T10491062  RH  091%=      5-min Rain = 0
KOD1 201218Z 21003KT M05/M06 A3035 RMK A01 T10491062  RH  091%=      5-min Rain = 0
KOD1 201219Z 21004KT M05/M06 A3035 RMK A01 T10501062  RH  091%=      5-min Rain = 0
KOD1 201220Z 21003KT M05/M06 A3035 RMK A01 T10491062  RH  091%=      5-min Rain = 0
KOD1 201221Z 20002KT M05/M06 A3035 RMK A01 T10491063  RH  090%=      5-min Rain = 0
KOD1 201222Z 18002KT M05/M06 A3034 RMK A01 T10501064  RH  090%=      5-min Rain = 0
KOD1 201223Z 18002KT M05/M07 A3034 RMK A01 T10521066  RH  089%=      5-min Rain = 0
KOD1 201224Z 19002KT M05/M07 A3034 RMK A01 T10521066  RH  090%=      5-min Rain = 0
KOD1 201225Z 19002KT M05/M07 A3034 RMK A01 T10531069  RH  089%=      5-min Rain = 0
KOD1 201226Z 19001KT M06/M07 A3034 RMK A01 T10551071  RH  088%=      5-min Rain = 0
KOD1 201227Z 19000KT M06/M07 A3034 RMK A01 T10561072  RH  089%=      5-min Rain = 0
KOD1 201228Z 21000KT M06/M07 A3034 RMK A01 T10561071  RH  090%=      5-min Rain = 0
KOD1 201229Z 21001KT M06/M07 A3034 RMK A01 T10561070  RH  090%=      5-min Rain = 0
KOD1 201230Z 21001KT M06/M07 A3034 RMK A01 T10561069  RH  090%=      5-min Rain = 0
KOD1 201231Z 21001KT M06/M07 A3034 RMK A01 T10561069  RH  090%=      5-min Rain = 0
KOD1 201232Z 21001KT M06/M07 A3034 RMK A01 T10561069  RH  091%=      5-min Rain = 0
KOD1 201233Z 21001KT M06/M07 A3034 RMK A01 T10551068  RH  091%=      5-min Rain = 0
KOD1 201234Z 21001KT M06/M07 A3034 RMK A01 T10551068  RH  091%=      5-min Rain = 0
KOD1 201235Z 21001KT M06/M07 A3034 RMK A01 T10551068  RH  091%=      5-min Rain = 0
KOD1 201236Z 22002KT M06/M07 A3034 RMK A01 T10551068  RH  091%=      5-min Rain = 0
KOD1 201237Z 23003KT M06/M07 A3034 RMK A01 T10551067  RH  091%=      5-min Rain = 0
KOD1 201238Z 23003KT M05/M07 A3034 RMK A01 T10541065  RH  092%=      5-min Rain = 0
KOD1 201239Z 22003KT M05/M06 A3034 RMK A01 T10531064  RH  092%=      5-min Rain = 0
KOD1 201240Z 22003KT M05/M06 A3034 RMK A01 T10521064  RH  091%=      5-min Rain = 0
KOD1 201241Z 21003KT M05/M07 A3034 RMK A01 T10521065  RH  091%=      5-min Rain = 0
KOD1 201242Z 21003KT M05/M07 A3034 RMK A01 T10521065  RH  091%=      5-min Rain = 0
KOD1 201243Z 21003KT M05/M07 A3034 RMK A01 T10521065  RH  091%=      5-min Rain = 0
KOD1 201244Z 22003KT M05/M07 A3034 RMK A01 T10521065  RH  091%=      5-min Rain = 0
KOD1 201245Z 21003KT M05/M07 A3034 RMK A01 T10521066  RH  091%=      5-min Rain = 0
KOD1 201246Z 21003KT M05/M07 A3034 RMK A01 T10521065  RH  091%=      5-min Rain = 0
KOD1 201247Z 21003KT M05/M06 A3034 RMK A01 T10521064  RH  091%=      5-min Rain = 0
KOD1 201248Z 21003KT M05/M06 A3034 RMK A01 T10521064  RH  091%=      5-min Rain = 0
KOD1 201249Z 21004KT M05/M06 A3034 RMK A01 T10511063  RH  091%=      5-min Rain = 0
KOD1 201250Z 21004KT M05/M06 A3034 RMK A01 T10501062  RH  092%=      5-min Rain = 0
KOD1 201251Z 21004KT M05/M06 A3034 RMK A01 T10501062  RH  091%=      5-min Rain = 0
KOD1 201252Z 20004KT M05/M06 A3034 RMK A01 T10491061  RH  091%=      5-min Rain = 0
KOD1 201253Z 20003KT M05/M06 A3034 RMK A01 T10491061  RH  091%=      5-min Rain = 0
KOD1 201254Z 19002KT M05/M06 A3034 RMK A01 T10491061  RH  091%=      5-min Rain = 0
KOD1 201255Z 17001KT M05/M06 A3034 RMK A01 T10481061  RH  091%=      5-min Rain = 0
KOD1 201256Z 15001KT M05/M06 A3034 RMK A01 T10491062  RH  090%=      5-min Rain = 0
KOD1 201257Z 15001KT M05/M07 A3034 RMK A01 T10511065  RH  089%=      5-min Rain = 0
KOD1 201258Z 16001KT M05/M07 A3034 RMK A01 T10521067  RH  089%=      5-min Rain = 0
KOD1 201259Z 21001KT M05/M07 A3035 RMK A01 T10521067  RH  090%=      5-min Rain = 0
KOD1 201300Z 21002KT M05/M07 A3034 RMK A01 T10531067  RH  090%=      5-min Rain = 0
KOD1 201301Z 21002KT M05/M07 A3034 RMK A01 T10531068  RH  089%=      5-min Rain = 0
KOD1 201302Z 22001KT M05/M07 A3034 RMK A01 T10541068  RH  090%=      5-min Rain = 0
KOD1 201303Z 21000KT M05/M07 A3034 RMK A01 T10531066  RH  091%=      5-min Rain = 0
KOD1 201304Z 00000KT M05/M07 A3034 RMK A01 T10531066  RH  091%=      5-min Rain = 0
KOD1 201305Z 00000KT M05/M07 A3035 RMK A01 T10531067  RH  090%=      5-min Rain = 0
KOD1 201306Z 00000KT M05/M07 A3035 RMK A01 T10531067  RH  090%=      5-min Rain = 0
KOD1 201307Z 00000KT M05/M07 A3035 RMK A01 T10541067  RH  090%=      5-min Rain = 0
KOD1 201308Z 00000KT M05/M07 A3035 RMK A01 T10541067  RH  090%=      5-min Rain = 0
KOD1 201309Z 19000KT M05/M07 A3034 RMK A01 T10541068  RH  090%=      5-min Rain = 0
KOD1 201310Z 20001KT M05/M07 A3034 RMK A01 T10541067  RH  091%=      5-min Rain = 0
KOD1 201311Z 21001KT M05/M07 A3034 RMK A01 T10541066  RH  091%=      5-min Rain = 0
KOD1 201312Z 21002KT M05/M07 A3034 RMK A01 T10531066  RH  091%=      5-min Rain = 0
KOD1 201313Z 21002KT M05/M07 A3034 RMK A01 T10531065  RH  091%=      5-min Rain = 0
KOD1 201314Z 21002KT M05/M07 A3034 RMK A01 T10521065  RH  091%=      5-min Rain = 0
KOD1 201315Z 21001KT M05/M06 A3034 RMK A01 T10521064  RH  091%=      5-min Rain = 0
KOD1 201316Z 21001KT M05/M06 A3035 RMK A01 T10521064  RH  091%=      5-min Rain = 0
KOD1 201317Z 21000KT M05/M07 A3035 RMK A01 T10521065  RH  091%=      5-min Rain = 0
KOD1 201318Z 22000KT M05/M07 A3035 RMK A01 T10511065  RH  091%=      5-min Rain = 0
KOD1 201319Z 22001KT M05/M06 A3035 RMK A01 T10511064  RH  091%=      5-min Rain = 0
KOD1 201320Z 23002KT M05/M07 A3035 RMK A01 T10511065  RH  090%=      5-min Rain = 0
KOD1 201321Z 23002KT M05/M07 A3035 RMK A01 T10511065  RH  090%=      5-min Rain = 0
KOD1 201322Z 22002KT M05/M07 A3035 RMK A01 T10511065  RH  090%=      5-min Rain = 0
KOD1 201323Z 22002KT M05/M07 A3035 RMK A01 T10511065  RH  090%=      5-min Rain = 0
KOD1 201324Z 22002KT M05/M07 A3035 RMK A01 T10511065  RH  090%=      5-min Rain = 0
KOD1 201325Z 20002KT M05/M06 A3035 RMK A01 T10511064  RH  091%=      5-min Rain = 0
KOD1 201326Z 20002KT M05/M06 A3034 RMK A01 T10501064  RH  091%=      5-min Rain = 0
KOD1 201327Z 20002KT M05/M06 A3034 RMK A01 T10501063  RH  090%=      5-min Rain = 0
KOD1 201328Z 20002KT M05/M06 A3035 RMK A01 T10501063  RH  090%=      5-min Rain = 0
KOD1 201329Z 20002KT M05/M06 A3035 RMK A01 T10491063  RH  090%=      5-min Rain = 0
KOD1 201330Z 20002KT M05/M06 A3035 RMK A01 T10491063  RH  090%=      5-min Rain = 0
KOD1 201331Z 20002KT M05/M06 A3035 RMK A01 T10491062  RH  090%=      5-min Rain = 0
KOD1 201332Z 19002KT M05/M06 A3035 RMK A01 T10491062  RH  090%=      5-min Rain = 0
KOD1 201333Z 18002KT M05/M06 A3035 RMK A01 T10481062  RH  090%=      5-min Rain = 0
KOD1 201334Z 18002KT M05/M06 A3035 RMK A01 T10481062  RH  090%=      5-min Rain = 0
KOD1 201335Z 18002KT M05/M06 A3035 RMK A01 T10491063  RH  090%=      5-min Rain = 0
KOD1 201336Z 19002KT M05/M06 A3034 RMK A01 T10491063  RH  090%=      5-min Rain = 0
KOD1 201337Z 19002KT M05/M06 A3034 RMK A01 T10491063  RH  090%=      5-min Rain = 0
KOD1 201338Z 18002KT M05/M06 A3034 RMK A01 T10491063  RH  090%=      5-min Rain = 0
KOD1 201339Z 18003KT M05/M06 A3034 RMK A01 T10491063  RH  090%=      5-min Rain = 0
KOD1 201340Z 18003KT M05/M06 A3034 RMK A01 T10491062  RH  090%=      5-min Rain = 0
KOD1 201341Z 18003KT M05/M06 A3034 RMK A01 T10491062  RH  090%=      5-min Rain = 0
KOD1 201342Z 17003KT M05/M06 A3034 RMK A01 T10491062  RH  090%=      5-min Rain = 0
KOD1 201343Z 17002KT M05/M06 A3034 RMK A01 T10491062  RH  090%=      5-min Rain = 0
KOD1 201344Z 17003KT M05/M06 A3034 RMK A01 T10491062  RH  091%=      5-min Rain = 0
KOD1 201345Z 17003KT M05/M06 A3034 RMK A01 T10491062  RH  091%=      5-min Rain = 0
KOD1 201346Z 17003KT M05/M06 A3034 RMK A01 T10491062  RH  091%=      5-min Rain = 0
KOD1 201347Z 17003KT M05/M06 A3034 RMK A01 T10481061  RH  091%=      5-min Rain = 0
KOD1 201348Z 17003KT M05/M06 A3034 RMK A01 T10481060  RH  091%=      5-min Rain = 0
KOD1 201349Z 17004KT M05/M06 A3034 RMK A01 T10471059  RH  091%=      5-min Rain = 0
KOD1 201350Z 18004KT M05/M06 A3034 RMK A01 T10461058  RH  091%=      5-min Rain = 0
KOD1 201351Z 17004KT M05/M06 A3034 RMK A01 T10451058  RH  091%=      5-min Rain = 0
KOD1 201352Z 17005KT M04/M06 A3034 RMK A01 T10441058  RH  090%=      5-min Rain = 0
KOD1 201353Z 17005KT M04/M06 A3034 RMK A01 T10441058  RH  090%=      5-min Rain = 0
KOD1 201354Z 17005KT M04/M06 A3034 RMK A01 T10431058  RH  090%=      5-min Rain = 0
KOD1 201355Z 17005KT M04/M06 A3034 RMK A01 T10431058  RH  089%=      5-min Rain = 0
KOD1 201356Z 18005KT M04/M06 A3034 RMK A01 T10421058  RH  089%=      5-min Rain = 0
KOD1 201357Z 18005KT M04/M06 A3034 RMK A01 T10421059  RH  088%=      5-min Rain = 0
KOD1 201358Z 18005KT M04/M06 A3034 RMK A01 T10421059  RH  088%=      5-min Rain = 0
KOD1 201359Z 19005KT M04/M06 A3034 RMK A01 T10421059  RH  088%=      5-min Rain = 0
KOD1 201400Z 19005KT M04/M06 A3034 RMK A01 T10411059  RH  087%=      5-min Rain = 0
KOD1 201401Z 19005KT M04/M06 A3034 RMK A01 T10411059  RH  087%=      5-min Rain = 0
KOD1 201402Z 19005KT M04/M06 A3034 RMK A01 T10401059  RH  087%=      5-min Rain = 0
KOD1 201403Z 19005KT M04/M06 A3034 RMK A01 T10401059  RH  087%=      5-min Rain = 0
KOD1 201404Z 19005KT M04/M06 A3034 RMK A01 T10401059  RH  086%=      5-min Rain = 0
KOD1 201405Z 19005KT M04/M06 A3034 RMK A01 T10391059  RH  086%=      5-min Rain = 0
KOD1 201406Z 19005KT M04/M06 A3034 RMK A01 T10391059  RH  086%=      5-min Rain = 0
KOD1 201407Z 19004KT M04/M06 A3034 RMK A01 T10391059  RH  086%=      5-min Rain = 0
KOD1 201408Z 19004KT M04/M06 A3034 RMK A01 T10381059  RH  086%=      5-min Rain = 0
KOD1 201409Z 19004KT M04/M06 A3034 RMK A01 T10381059  RH  086%=      5-min Rain = 0
KOD1 201410Z 19004KT M04/M06 A3034 RMK A01 T10381059  RH  086%=      5-min Rain = 0
KOD1 201411Z 19005KT M04/M06 A3034 RMK A01 T10381058  RH  086%=      5-min Rain = 0
KOD1 201412Z 19005KT M04/M06 A3034 RMK A01 T10371058  RH  085%=      5-min Rain = 0
KOD1 201413Z 18005KT M04/M06 A3034 RMK A01 T10371058  RH  085%=      5-min Rain = 0
KOD1 201414Z 18005KT M04/M06 A3034 RMK A01 T10371058  RH  085%=      5-min Rain = 0
KOD1 201415Z 18005KT M04/M06 A3034 RMK A01 T10361058  RH  085%=      5-min Rain = 0
KOD1 201416Z 18005KT M04/M06 A3034 RMK A01 T10361058  RH  085%=      5-min Rain = 0
KOD1 201417Z 17005KT M04/M06 A3034 RMK A01 T10351058  RH  084%=      5-min Rain = 0
KOD1 201418Z 17006KT M04/M06 A3034 RMK A01 T10351058  RH  084%=      5-min Rain = 0
KOD1 201419Z 17006KT M04/M06 A3034 RMK A01 T10351058  RH  084%=      5-min Rain = 0
KOD1 201420Z 17005KT M03/M06 A3034 RMK A01 T10341058  RH  083%=      5-min Rain = 0
KOD1 201421Z 17005KT M03/M06 A3034 RMK A01 T10341058  RH  083%=      5-min Rain = 0
KOD1 201422Z 18005KT M03/M06 A3034 RMK A01 T10331058  RH  083%=      5-min Rain = 0
KOD1 201423Z 17004KT M03/M06 A3034 RMK A01 T10331058  RH  083%=      5-min Rain = 0
KOD1 201424Z 18005KT M03/M06 A3034 RMK A01 T10321058  RH  083%=      5-min Rain = 0
KOD1 201425Z 18005KT M03/M06 A3034 RMK A01 T10321058  RH  082%=      5-min Rain = 0
KOD1 201426Z 18005KT M03/M06 A3034 RMK A01 T10321057  RH  082%=      5-min Rain = 0
KOD1 201427Z 18005KT M03/M06 A3034 RMK A01 T10311057  RH  082%=      5-min Rain = 0
KOD1 201428Z 18005KT M03/M06 A3034 RMK A01 T10311057  RH  082%=      5-min Rain = 0
KOD1 201429Z 18005KT M03/M06 A3034 RMK A01 T10311057  RH  082%=      5-min Rain = 0
KOD1 201430Z 17005KT M03/M06 A3034 RMK A01 T10301057  RH  082%=      5-min Rain = 0
KOD1 201431Z 17006KT M03/M06 A3034 RMK A01 T10301057  RH  082%=      5-min Rain = 0
KOD1 201432Z 17006KT M03/M06 A3034 RMK A01 T10301057  RH  081%=      5-min Rain = 0
KOD1 201433Z 18006KT M03/M06 A3034 RMK A01 T10291057  RH  081%=      5-min Rain = 0
KOD1 201434Z 17006KT M03/M06 A3034 RMK A01 T10291057  RH  081%=      5-min Rain = 0
KOD1 201435Z 17005KT M03/M06 A3034 RMK A01 T10291057  RH  081%=      5-min Rain = 0
KOD1 201436Z 17005KT M03/M06 A3034 RMK A01 T10281056  RH  081%=      5-min Rain = 0
KOD1 201437Z 17006KT M03/M06 A3034 RMK A01 T10281056  RH  081%=      5-min Rain = 0
KOD1 201438Z 17006KT M03/M06 A3034 RMK A01 T10281057  RH  081%=      5-min Rain = 0
KOD1 201439Z 17005KT M03/M06 A3034 RMK A01 T10281057  RH  080%=      5-min Rain = 0
KOD1 201440Z 17005KT M03/M06 A3034 RMK A01 T10281057  RH  080%=      5-min Rain = 0
KOD1 201441Z 17005KT M03/M06 A3034 RMK A01 T10271057  RH  080%=      5-min Rain = 0
KOD1 201442Z 17005KT M03/M06 A3034 RMK A01 T10271056  RH  080%=      5-min Rain = 0
KOD1 201443Z 17005KT M03/M06 A3034 RMK A01 T10261056  RH  080%=      5-min Rain = 0
KOD1 201444Z 17004KT M03/M06 A3034 RMK A01 T10261056  RH  080%=      5-min Rain = 0
KOD1 201445Z 17004KT M03/M06 A3034 RMK A01 T10251056  RH  080%=      5-min Rain = 0
KOD1 201446Z 17004KT M03/M06 A3034 RMK A01 T10251056  RH  079%=      5-min Rain = 0
KOD1 201447Z 18004KT M02/M06 A3034 RMK A01 T10241056  RH  079%=      5-min Rain = 0
KOD1 201448Z 17004KT M02/M06 A3034 RMK A01 T10241055  RH  079%=      5-min Rain = 0
KOD1 201449Z 18003KT M02/M06 A3034 RMK A01 T10231055  RH  079%=      5-min Rain = 0
KOD1 201450Z 18003KT M02/M06 A3034 RMK A01 T10221055  RH  078%=      5-min Rain = 0
KOD1 201451Z 18003KT M02/M06 A3034 RMK A01 T10221055  RH  078%=      5-min Rain = 0
KOD1 201452Z 17004KT M02/M05 A3034 RMK A01 T10211053  RH  079%=      5-min Rain = 0
KOD1 201453Z 17003KT M02/M06 A3034 RMK A01 T10211055  RH  077%=      5-min Rain = 0
KOD1 201454Z 17004KT M02/M06 A3034 RMK A01 T10211055  RH  077%=      5-min Rain = 0
KOD1 201455Z 17003KT M02/M06 A3034 RMK A01 T10201055  RH  077%=      5-min Rain = 0
KOD1 201456Z 17004KT M02/M06 A3034 RMK A01 T10191055  RH  076%=      5-min Rain = 0
KOD1 201457Z 16003KT M02/M05 A3034 RMK A01 T10181054  RH  077%=      5-min Rain = 0
KOD1 201458Z 16003KT M02/M05 A3034 RMK A01 T10171053  RH  077%=      5-min Rain = 0
KOD1 201459Z 16004KT M02/M05 A3035 RMK A01 T10171053  RH  076%=      5-min Rain = 0
KOD1 201500Z 15004KT M02/M05 A3034 RMK A01 T10161054  RH  076%=      5-min Rain = 0
KOD1 201501Z 16005KT M02/M05 A3035 RMK A01 T10161054  RH  075%=      5-min Rain = 0
KOD1 201502Z 15004KT M02/M05 A3035 RMK A01 T10151053  RH  075%=      5-min Rain = 0
KOD1 201503Z 16004KT M01/M05 A3035 RMK A01 T10141051  RH  076%=      5-min Rain = 0
KOD1 201504Z 16005KT M01/M05 A3034 RMK A01 T10141053  RH  075%=      5-min Rain = 0
KOD1 201505Z 16003KT M01/M05 A3034 RMK A01 T10131053  RH  074%=      5-min Rain = 0
KOD1 201506Z 15003KT M01/M05 A3034 RMK A01 T10131053  RH  074%=      5-min Rain = 0
KOD1 201507Z 16003KT M01/M05 A3034 RMK A01 T10131053  RH  074%=      5-min Rain = 0
KOD1 201508Z 15004KT M01/M05 A3034 RMK A01 T10121052  RH  074%=      5-min Rain = 0
KOD1 201509Z 16004KT M01/M06 A3035 RMK A01 T10121055  RH  072%=      5-min Rain = 0
KOD1 201510Z 14003KT M01/M06 A3035 RMK A01 T10111055  RH  072%=      5-min Rain = 0
KOD1 201511Z 14004KT M01/M06 A3035 RMK A01 T10111055  RH  072%=      5-min Rain = 0
KOD1 201512Z 15005KT M01/M06 A3035 RMK A01 T10101055  RH  072%=      5-min Rain = 0
KOD1 201513Z 15005KT M01/M05 A3035 RMK A01 T10101054  RH  072%=      5-min Rain = 0
KOD1 201514Z 15005KT M01/M05 A3035 RMK A01 T10091054  RH  071%=      5-min Rain = 0
KOD1 201515Z 16005KT M01/M06 A3035 RMK A01 T10091055  RH  071%=      5-min Rain = 0
KOD1 201516Z 16005KT M01/M05 A3035 RMK A01 T10081054  RH  071%=      5-min Rain = 0
KOD1 201517Z 15005KT M01/M05 A3035 RMK A01 T10071053  RH  071%=      5-min Rain = 0
KOD1 201518Z 16005KT M01/M06 A3035 RMK A01 T10071055  RH  070%=      5-min Rain = 0
KOD1 201519Z 16004KT M01/M05 A3035 RMK A01 T10061053  RH  070%=      5-min Rain = 0
KOD1 201520Z 15006KT M01/M05 A3035 RMK A01 T10051053  RH  070%=      5-min Rain = 0
KOD1 201521Z 15005KT M01/M05 A3035 RMK A01 T10051053  RH  070%=      5-min Rain = 0
KOD1 201522Z 16005KT M00/M06 A3035 RMK A01 T10041056  RH  068%=      5-min Rain = 0
KOD1 201523Z 17005KT M00/M05 A3035 RMK A01 T10031054  RH  069%=      5-min Rain = 0
KOD1 201524Z 16005KT M00/M05 A3035 RMK A01 T10031053  RH  069%=      5-min Rain = 0
KOD1 201525Z 16006KT M00/M05 A3035 RMK A01 T10021053  RH  068%=      5-min Rain = 0
KOD1 201526Z 17006KT M00/M05 A3035 RMK A01 T10021054  RH  068%=      5-min Rain = 0
KOD1 201527Z 17005KT M00/M06 A3035 RMK A01 T10011056  RH  067%=      5-min Rain = 0
KOD1 201528Z 17005KT M00/M06 A3035 RMK A01 T10011055  RH  067%=      5-min Rain = 0
KOD1 201529Z 17005KT 00/05 A3035 RMK A01 T00-00-52  RH  068%=      5-min Rain = 0
KOD1 201530Z 17006KT 00/M05 A3035 RMK A01 T00011051  RH  068%=      5-min Rain = 0
KOD1 201531Z 18006KT 00/M05 A3035 RMK A01 T00021052  RH  067%=      5-min Rain = 0
KOD1 201532Z 19007KT 00/M05 A3035 RMK A01 T00021054  RH  066%=      5-min Rain = 0
KOD1 201533Z 17007KT 00/M06 A3035 RMK A01 T00021056  RH  065%=      5-min Rain = 0
KOD1 201534Z 17008KT 00/M06 A3035 RMK A01 T00021057  RH  064%=      5-min Rain = 0
KOD1 201535Z 17008KT 00/M06 A3034 RMK A01 T00021057  RH  064%=      5-min Rain = 0
KOD1 201536Z 17008KT 00/M06 A3034 RMK A01 T00021059  RH  064%=      5-min Rain = 0
KOD1 201537Z 17009KT 00/M06 A3034 RMK A01 T00031057  RH  064%=      5-min Rain = 0
KOD1 201538Z 19007KT 00/M06 A3034 RMK A01 T00031057  RH  064%=      5-min Rain = 0
KOD1 201539Z 19007KT 00/M06 A3034 RMK A01 T00031058  RH  064%=      5-min Rain = 0
KOD1 201540Z 18007KT 00/M06 A3034 RMK A01 T00021056  RH  065%=      5-min Rain = 0
KOD1 201541Z 18009KT 00/M06 A3034 RMK A01 T00031056  RH  065%=      5-min Rain = 0
KOD1 201542Z 18007KT 00/M06 A3034 RMK A01 T00021057  RH  065%=      5-min Rain = 0
KOD1 201543Z 18009KT 00/M05 A3034 RMK A01 T00021054  RH  066%=      5-min Rain = 0
KOD1 201544Z 18008KT 00/M06 A3034 RMK A01 T00021056  RH  065%=      5-min Rain = 0
KOD1 201545Z 19008KT 00/M06 A3034 RMK A01 T00021056  RH  065%=      5-min Rain = 0
KOD1 201546Z 19008KT 00/M06 A3034 RMK A01 T00021057  RH  065%=      5-min Rain = 0
KOD1 201547Z 19007KT 00/M06 A3034 RMK A01 T00021057  RH  065%=      5-min Rain = 0
KOD1 201548Z 18007KT 00/M06 A3034 RMK A01 T00021055  RH  066%=      5-min Rain = 0
KOD1 201549Z 17008KT 00/M06 A3034 RMK A01 T00031055  RH  065%=      5-min Rain = 0
KOD1 201550Z 17008KT 00/M06 A3034 RMK A01 T00031055  RH  065%=      5-min Rain = 0
KOD1 201551Z 18008KT 00/M06 A3034 RMK A01 T00031056  RH  065%=      5-min Rain = 0
KOD1 201552Z 18008KT 00/M06 A3034 RMK A01 T00031058  RH  063%=      5-min Rain = 0
KOD1 201553Z 18008KT 00/M06 A3034 RMK A01 T00031056  RH  064%=      5-min Rain = 0
KOD1 201554Z 18009KT 00/M06 A3034 RMK A01 T00031057  RH  064%=      5-min Rain = 0
KOD1 201555Z 19008KT 00/M06 A3034 RMK A01 T00031056  RH  064%=      5-min Rain = 0
KOD1 201556Z 19008KT 00/M06 A3034 RMK A01 T00031056  RH  064%=      5-min Rain = 0
KOD1 201557Z 19008KT 00/M06 A3034 RMK A01 T00041055  RH  064%=      5-min Rain = 0
KOD1 201558Z 18008KT 00/M06 A3034 RMK A01 T00041057  RH  064%=      5-min Rain = 0
KOD1 201559Z 18008KT 00/M06 A3034 RMK A01 T00041055  RH  065%=      5-min Rain = 0
KOD1 201600Z 18009KT 01/M06 A3034 RMK A01 T00051055  RH  064%=      5-min Rain = 0
KOD1 201601Z 18009KT 01/M06 A3034 RMK A01 T00051057  RH  063%=      5-min Rain = 0
KOD1 201602Z 18008KT 01/M06 A3034 RMK A01 T00051056  RH  064%=      5-min Rain = 0
KOD1 201603Z 18009KT 01/M06 A3034 RMK A01 T00051058  RH  063%=      5-min Rain = 0
KOD1 201604Z 18008KT 01/M06 A3034 RMK A01 T00051058  RH  063%=      5-min Rain = 0
KOD1 201605Z 18007KT 01/M06 A3034 RMK A01 T00051056  RH  063%=      5-min Rain = 0
KOD1 201606Z 19008KT 01/M06 A3034 RMK A01 T00051058  RH  063%=      5-min Rain = 0
KOD1 201607Z 20007KT 01/M06 A3034 RMK A01 T00051057  RH  063%=      5-min Rain = 0
KOD1 201608Z 19007KT 01/M06 A3034 RMK A01 T00051057  RH  063%=      5-min Rain = 0
KOD1 201609Z 19008KT 01/M05 A3034 RMK A01 T00051054  RH  064%=      5-min Rain = 0
KOD1 201610Z 20007KT 01/M05 A3034 RMK A01 T00061054  RH  064%=      5-min Rain = 0
KOD1 201611Z 20007KT 01/M05 A3034 RMK A01 T00071053  RH  064%=      5-min Rain = 0
KOD1 201612Z 18007KT 01/M05 A3034 RMK A01 T00071052  RH  064%=      5-min Rain = 0
KOD1 201613Z 18007KT 01/M05 A3034 RMK A01 T00081052  RH  064%=      5-min Rain = 0
KOD1 201614Z 18007KT 01/M05 A3034 RMK A01 T00071053  RH  064%=      5-min Rain = 0
KOD1 201615Z 19006KT 01/M05 A3034 RMK A01 T00071051  RH  065%=      5-min Rain = 0
KOD1 201616Z 18007KT 01/M05 A3034 RMK A01 T00081050  RH  065%=      5-min Rain = 0
KOD1 201617Z 18007KT 01/M05 A3034 RMK A01 T00091052  RH  064%=      5-min Rain = 0
KOD1 201618Z 18007KT 01/M05 A3034 RMK A01 T00081052  RH  064%=      5-min Rain = 0
KOD1 201619Z 19008KT 01/M05 A3034 RMK A01 T00091052  RH  064%=      5-min Rain = 0
KOD1 201620Z 17008KT 01/M05 A3034 RMK A01 T00101051  RH  064%=      5-min Rain = 0
KOD1 201621Z 17009KT 01/M05 A3034 RMK A01 T00101053  RH  063%=      5-min Rain = 0
KOD1 201622Z 18008KT 01/M05 A3034 RMK A01 T00111053  RH  062%=      5-min Rain = 0
KOD1 201623Z 19007KT 01/M05 A3034 RMK A01 T00121051  RH  063%=      5-min Rain = 0
KOD1 201624Z 19008KT 01/M05 A3034 RMK A01 T00131050  RH  063%=      5-min Rain = 0
KOD1 201625Z 20007KT 01/M05 A3034 RMK A01 T00131051  RH  062%=      5-min Rain = 0
KOD1 201626Z 18008KT 01/M05 A3034 RMK A01 T00141051  RH  062%=      5-min Rain = 0
KOD1 201627Z 17008KT 02/M05 A3033 RMK A01 T00151049  RH  062%=      5-min Rain = 0
KOD1 201628Z 19009KT 02/M05 A3033 RMK A01 T00151052  RH  061%=      5-min Rain = 0
KOD1 201629Z 19008KT 01/M05 A3033 RMK A01 T00141053  RH  061%=      5-min Rain = 0
KOD1 201630Z 19007KT 01/M05 A3033 RMK A01 T00141051  RH  062%=      5-min Rain = 0
KOD1 201631Z 17008KT 02/M05 A3033 RMK A01 T00151050  RH  062%=      5-min Rain = 0
KOD1 201632Z 18008KT 02/M05 A3033 RMK A01 T00161052  RH  061%=      5-min Rain = 0
KOD1 201633Z 19008KT 02/M05 A3033 RMK A01 T00171052  RH  060%=      5-min Rain = 0
KOD1 201634Z 18007KT 02/M05 A3033 RMK A01 T00161053  RH  060%=      5-min Rain = 0
KOD1 201635Z 18008KT 02/M05 A3033 RMK A01 T00151052  RH  061%=      5-min Rain = 0
KOD1 201636Z 17009KT 02/M05 A3033 RMK A01 T00151053  RH  060%=      5-min Rain = 0
KOD1 201637Z 17010KT 02/M06 A3033 RMK A01 T00151055  RH  059%=      5-min Rain = 0
KOD1 201638Z 17008KT 02/M06 A3033 RMK A01 T00151056  RH  059%=      5-min Rain = 0
KOD1 201639Z 18008KT 02/M05 A3033 RMK A01 T00151053  RH  061%=      5-min Rain = 0
KOD1 201640Z 17009KT 02/M05 A3033 RMK A01 T00161052  RH  060%=      5-min Rain = 0
KOD1 201641Z 18009KT 02/M05 A3033 RMK A01 T00161053  RH  060%=      5-min Rain = 0
KOD1 201642Z 17009KT 02/M05 A3033 RMK A01 T00171052  RH  060%=      5-min Rain = 0
KOD1 201643Z 16009KT 02/M05 A3033 RMK A01 T00171054  RH  059%=      5-min Rain = 0
KOD1 201644Z 17009KT 02/M05 A3033 RMK A01 T00171053  RH  060%=      5-min Rain = 0
KOD1 201645Z 17009KT 02/M05 A3033 RMK A01 T00181052  RH  060%=      5-min Rain = 0
KOD1 201646Z 18009KT 02/M05 A3033 RMK A01 T00181054  RH  059%=      5-min Rain = 0
KOD1 201647Z 17008KT 02/M05 A3033 RMK A01 T00181053  RH  059%=      5-min Rain = 0
KOD1 201648Z 17010KT 02/M05 A3033 RMK A01 T00181054  RH  059%=      5-min Rain = 0
KOD1 201649Z 17009KT 02/M05 A3033 RMK A01 T00181054  RH  059%=      5-min Rain = 0
KOD1 201650Z 18009KT 02/M05 A3033 RMK A01 T00181054  RH  059%=      5-min Rain = 0
KOD1 201651Z 17009KT 02/M05 A3033 RMK A01 T00181054  RH  059%=      5-min Rain = 0
KOD1 201652Z 17008KT 02/M05 A3033 RMK A01 T00191053  RH  059%=      5-min Rain = 0
KOD1 201653Z 17008KT 02/M05 A3033 RMK A01 T00201053  RH  059%=      5-min Rain = 0
KOD1 201654Z 16010KT 02/M06 A3033 RMK A01 T00201057  RH  057%=      5-min Rain = 0
KOD1 201655Z 17010KT 02/M06 A3033 RMK A01 T00201055  RH  057%=      5-min Rain = 0
KOD1 201656Z 18008KT 02/M05 A3033 RMK A01 T00211054  RH  058%=      5-min Rain = 0
KOD1 201657Z 17006KT 02/M05 A3033 RMK A01 T00221051  RH  058%=      5-min Rain = 0
KOD1 201658Z 16008KT 02/M06 A3033 RMK A01 T00231055  RH  056%=      5-min Rain = 0
KOD1 201659Z 19009KT 02/M05 A3033 RMK A01 T00241053  RH  057%=      5-min Rain = 0
KOD1 201700Z 19009KT 02/M06 A3033 RMK A01 T00241056  RH  056%=      5-min Rain = 0
KOD1 201701Z 19008KT 02/M06 A3033 RMK A01 T00231055  RH  056%=      5-min Rain = 0
KOD1 201702Z 18008KT 02/M05 A3033 RMK A01 T00241052  RH  057%=      5-min Rain = 0
KOD1 201703Z 18010KT 03/M06 A3033 RMK A01 T00251056  RH  055%=      5-min Rain = 0
KOD1 201704Z 18009KT 02/M06 A3033 RMK A01 T00241058  RH  055%=      5-min Rain = 0
KOD1 201705Z 18009KT 02/M06 A3033 RMK A01 T00231057  RH  055%=      5-min Rain = 0
KOD1 201706Z 18008KT 02/M06 A3033 RMK A01 T00231057  RH  055%=      5-min Rain = 0
KOD1 201707Z 16007KT 02/M06 A3033 RMK A01 T00241056  RH  056%=      5-min Rain = 0
KOD1 201708Z 18007KT 02/M05 A3033 RMK A01 T00241054  RH  057%=      5-min Rain = 0
KOD1 201709Z 17007KT 02/M05 A3033 RMK A01 T00241054  RH  056%=      5-min Rain = 0
KOD1 201710Z 16010KT 03/M06 A3033 RMK A01 T00251057  RH  055%=      5-min Rain = 0
KOD1 201711Z 17010KT 03/M06 A3033 RMK A01 T00261058  RH  054%=      5-min Rain = 0
KOD1 201712Z 16009KT 03/M06 A3032 RMK A01 T00271059  RH  053%=      5-min Rain = 0
KOD1 201713Z 16008KT 03/M06 A3032 RMK A01 T00271057  RH  054%=      5-min Rain = 0
KOD1 201714Z 18008KT 03/M06 A3033 RMK A01 T00271057  RH  054%=      5-min Rain = 0
KOD1 201715Z 18008KT 03/M06 A3033 RMK A01 T00281057  RH  054%=      5-min Rain = 0
KOD1 201716Z 18008KT 03/M06 A3032 RMK A01 T00281059  RH  053%=      5-min Rain = 0
KOD1 201717Z 18009KT 03/M06 A3032 RMK A01 T00281057  RH  053%=      5-min Rain = 0
KOD1 201718Z 19008KT 03/M06 A3032 RMK A01 T00291058  RH  053%=      5-min Rain = 0
KOD1 201719Z 18008KT 03/M06 A3032 RMK A01 T00281060  RH  053%=      5-min Rain = 0
KOD1 201720Z 16008KT 03/M06 A3032 RMK A01 T00281057  RH  054%=      5-min Rain = 0
KOD1 201721Z 17010KT 03/M06 A3032 RMK A01 T00291059  RH  053%=      5-min Rain = 0
KOD1 201722Z 17010KT 03/M06 A3032 RMK A01 T00301059  RH  052%=      5-min Rain = 0
KOD1 201723Z 17009KT 03/M06 A3032 RMK A01 T00301059  RH  052%=      5-min Rain = 0
KOD1 201724Z 16009KT 03/M06 A3032 RMK A01 T00301060  RH  052%=      5-min Rain = 0
KOD1 201725Z 16008KT 03/M06 A3032 RMK A01 T00311055  RH  053%=      5-min Rain = 0
KOD1 201726Z 16007KT 03/M06 A3032 RMK A01 T00321060  RH  051%=      5-min Rain = 0
KOD1 201727Z 16008KT 03/M06 A3032 RMK A01 T00321058  RH  052%=      5-min Rain = 0
KOD1 201728Z 18009KT 03/M06 A3032 RMK A01 T00341057  RH  052%=      5-min Rain = 0
KOD1 201729Z 17010KT 04/M06 A3032 RMK A01 T00351057  RH  051%=      5-min Rain = 0
KOD1 201730Z 17008KT 04/M06 A3032 RMK A01 T00351055  RH  052%=      5-min Rain = 0
KOD1 201731Z 16008KT 04/M06 A3032 RMK A01 T00361057  RH  051%=      5-min Rain = 0
KOD1 201732Z 16008KT 04/M06 A3032 RMK A01 T00351057  RH  051%=      5-min Rain = 0
KOD1 201733Z 15008KT 04/M06 A3032 RMK A01 T00351056  RH  051%=      5-min Rain = 0
KOD1 201734Z 18007KT 04/M05 A3032 RMK A01 T00361054  RH  052%=      5-min Rain = 0
KOD1 201735Z 20008KT 04/M06 A3032 RMK A01 T00371056  RH  050%=      5-min Rain = 0
KOD1 201736Z 17008KT 04/M06 A3031 RMK A01 T00361055  RH  051%=      5-min Rain = 0
KOD1 201737Z 16010KT 04/M06 A3031 RMK A01 T00361057  RH  051%=      5-min Rain = 0
KOD1 201738Z 15011KT 04/M06 A3031 RMK A01 T00361057  RH  050%=      5-min Rain = 0
KOD1 201739Z 16009KT 04/M06 A3031 RMK A01 T00361057  RH  050%=      5-min Rain = 0
KOD1 201740Z 18009KT 04/M06 A3031 RMK A01 T00351058  RH  050%=      5-min Rain = 0
KOD1 201741Z 17007KT 04/M06 A3031 RMK A01 T00351059  RH  050%=      5-min Rain = 0
KOD1 201742Z 16010KT 04/M06 A3031 RMK A01 T00351057  RH  051%=      5-min Rain = 0
KOD1 201743Z 16008KT 04/M06 A3031 RMK A01 T00351058  RH  051%=      5-min Rain = 0
KOD1 201744Z 16008KT 04/M05 A3031 RMK A01 T00361054  RH  052%=      5-min Rain = 0
KOD1 201745Z 16010KT 04/M06 A3031 RMK A01 T00381055  RH  050%=      5-min Rain = 0
KOD1 201746Z 16008KT 04/M06 A3031 RMK A01 T00391056  RH  050%=      5-min Rain = 0
KOD1 201747Z 15009KT 04/M06 A3031 RMK A01 T00401055  RH  050%=      5-min Rain = 0
KOD1 201748Z 17008KT 04/M06 A3031 RMK A01 T00401056  RH  050%=      5-min Rain = 0
KOD1 201749Z 15008KT 04/M06 A303 RMK A01 T00391055  RH  050%=      5-min Rain = 0
KOD1 201750Z 15007KT 04/M05 A303 RMK A01 T00411053  RH  050%=      5-min Rain = 0
KOD1 201751Z 15008KT 04/M06 A303 RMK A01 T00421055  RH  049%=      5-min Rain = 0
KOD1 201752Z 15009KT 04/M06 A303 RMK A01 T00421057  RH  049%=      5-min Rain = 0
KOD1 201753Z 15010KT 04/M06 A303 RMK A01 T00411056  RH  049%=      5-min Rain = 0
KOD1 201754Z 16010KT 04/M06 A303 RMK A01 T00421056  RH  049%=      5-min Rain = 0
KOD1 201755Z 16010KT 04/M06 A3029 RMK A01 T00421057  RH  049%=      5-min Rain = 0
KOD1 201756Z 15011KT 04/M06 A3029 RMK A01 T00411056  RH  049%=      5-min Rain = 0
KOD1 201757Z 15010KT 04/M06 A3029 RMK A01 T00401056  RH  050%=      5-min Rain = 0
KOD1 201758Z 16010KT 04/M05 A3029 RMK A01 T00411054  RH  050%=      5-min Rain = 0
KOD1 201759Z 14010KT 04/M06 A3029 RMK A01 T00411056  RH  049%=      5-min Rain = 0
KOD1 201800Z 16011KT 04/M05 A3029 RMK A01 T00421053  RH  050%=      5-min Rain = 0
KOD1 201801Z 18010KT 05/M05 A3029 RMK A01 T00451051  RH  050%=      5-min Rain = 0
KOD1 201802Z 18010KT 05/M05 A3028 RMK A01 T00451054  RH  049%=      5-min Rain = 0
KOD1 201803Z 16012KT 04/M05 A3028 RMK A01 T00441053  RH  049%=      5-min Rain = 0
KOD1 201804Z 17010KT 04/M06 A3028 RMK A01 T00441055  RH  049%=      5-min Rain = 0
KOD1 201805Z 16011KT 04/M05 A3028 RMK A01 T00441052  RH  049%=      5-min Rain = 0
KOD1 201806Z 16011KT 05/M05 A3028 RMK A01 T00461050  RH  050%=      5-min Rain = 0
KOD1 201807Z 17010KT 05/M05 A3028 RMK A01 T00471053  RH  048%=      5-min Rain = 0
KOD1 201808Z 18010KT 05/M05 A3028 RMK A01 T00471052  RH  049%=      5-min Rain = 0
KOD1 201809Z 17010KT 05/M05 A3028 RMK A01 T00471051  RH  049%=      5-min Rain = 0
KOD1 201810Z 15008KT 05/M05 A3028 RMK A01 T00461051  RH  049%=      5-min Rain = 0
KOD1 201811Z 16009KT 05/M05 A3028 RMK A01 T00481046  RH  051%=      5-min Rain = 0
KOD1 201812Z 15011KT 05/M05 A3028 RMK A01 T00491050  RH  049%=      5-min Rain = 0
KOD1 201813Z 15009KT 05/M05 A3028 RMK A01 T00471053  RH  048%=      5-min Rain = 0
KOD1 201814Z 16010KT 05/M05 A3028 RMK A01 T00481047  RH  050%=      5-min Rain = 0
KOD1 201815Z 18009KT 05/M05 A3028 RMK A01 T00491049  RH  049%=      5-min Rain = 0
KOD1 201816Z 16008KT 05/M05 A3028 RMK A01 T00491050  RH  048%=      5-min Rain = 0
KOD1 201817Z 15011KT 05/M05 A3028 RMK A01 T00491051  RH  048%=      5-min Rain = 0
KOD1 201818Z 16011KT 05/M05 A3028 RMK A01 T00491052  RH  048%=      5-min Rain = 0
KOD1 201819Z 16009KT 05/M05 A3028 RMK A01 T00481052  RH  048%=      5-min Rain = 0
KOD1 201820Z 15012KT 05/M05 A3027 RMK A01 T00481053  RH  048%=      5-min Rain = 0
KOD1 201821Z 15009KT 05/M05 A3027 RMK A01 T00491051  RH  048%=      5-min Rain = 0
KOD1 201822Z 17010KT 05/M05 A3027 RMK A01 T00511049  RH  048%=      5-min Rain = 0
KOD1 201823Z 16011KT 05/M05 A3027 RMK A01 T00521051  RH  047%=      5-min Rain = 0
KOD1 201824Z 15010KT 05/M05 A3027 RMK A01 T00521052  RH  047%=      5-min Rain = 0
KOD1 201825Z 15009KT 05/M06 A3027 RMK A01 T00511055  RH  046%=      5-min Rain = 0
KOD1 201826Z 16009KT 05/M05 A3027 RMK A01 T00511052  RH  047%=      5-min Rain = 0
KOD1 201827Z 16009KT 05/M05 A3027 RMK A01 T00511052  RH  047%=      5-min Rain = 0
KOD1 201828Z 16012KT 05/M05 A3027 RMK A01 T00521049  RH  048%=      5-min Rain = 0
KOD1 201829Z 15011KT 05/M05 A3027 RMK A01 T00511052  RH  047%=      5-min Rain = 0
KOD1 201830Z 14008KT 05/M05 A3027 RMK A01 T00491052  RH  048%=      5-min Rain = 0
KOD1 201831Z 14008KT 05/M05 A3027 RMK A01 T00481050  RH  049%=      5-min Rain = 0
KOD1 201832Z 15010KT 05/M05 A3027 RMK A01 T00501047  RH  049%=      5-min Rain = 0
KOD1 201833Z 16012KT 05/M05 A3027 RMK A01 T00501050  RH  048%=      5-min Rain = 0
KOD1 201834Z 16008KT 05/M05 A3027 RMK A01 T00491050  RH  049%=      5-min Rain = 0
KOD1 201835Z 16009KT 05/M05 A3027 RMK A01 T00501047  RH  050%=      5-min Rain = 0
KOD1 201836Z 16009KT 05/M05 A3027 RMK A01 T00511050  RH  048%=      5-min Rain = 0
KOD1 201837Z 16012KT 05/M05 A3027 RMK A01 T00511049  RH  048%=      5-min Rain = 0
KOD1 201838Z 15008KT 05/M05 A3027 RMK A01 T00501051  RH  048%=      5-min Rain = 0
KOD1 201839Z 15006KT 05/M05 A3027 RMK A01 T00501050  RH  048%=      5-min Rain = 0
KOD1 201840Z 15010KT 05/M05 A3027 RMK A01 T00511047  RH  049%=      5-min Rain = 0
KOD1 201841Z 13009KT 05/M05 A3027 RMK A01 T00511049  RH  048%=      5-min Rain = 0
KOD1 201842Z 13007KT 05/M05 A3027 RMK A01 T00511047  RH  049%=      5-min Rain = 0
KOD1 201843Z 15007KT 05/M05 A3026 RMK A01 T00521045  RH  050%=      5-min Rain = 0
KOD1 201844Z 15008KT 05/M05 A3026 RMK A01 T00531046  RH  049%=      5-min Rain = 0
KOD1 201845Z 15011KT 05/M05 A3026 RMK A01 T00541046  RH  049%=      5-min Rain = 0
KOD1 201846Z 15008KT 05/M05 A3026 RMK A01 T00531047  RH  049%=      5-min Rain = 0
KOD1 201847Z 13008KT 05/M05 A3026 RMK A01 T00521048  RH  048%=      5-min Rain = 0
KOD1 201848Z 14008KT 05/M05 A3026 RMK A01 T00521047  RH  049%=      5-min Rain = 0
KOD1 201849Z 15010KT 05/M04 A3026 RMK A01 T00531044  RH  050%=      5-min Rain = 0
KOD1 201850Z 16008KT 06/M04 A3026 RMK A01 T00561042  RH  049%=      5-min Rain = 0
KOD1 201851Z 16007KT 06/M04 A3026 RMK A01 T00571043  RH  049%=      5-min Rain = 0
KOD1 201852Z 16009KT 06/M05 A3026 RMK A01 T00571046  RH  047%=      5-min Rain = 0
KOD1 201853Z 16009KT 06/M05 A3026 RMK A01 T00551048  RH  048%=      5-min Rain = 0
KOD1 201854Z 16010KT 05/M05 A3026 RMK A01 T00531047  RH  049%=      5-min Rain = 0
KOD1 201855Z 15009KT 05/M05 A3026 RMK A01 T00531046  RH  049%=      5-min Rain = 0
KOD1 201856Z 16010KT 05/M05 A3026 RMK A01 T00531047  RH  049%=      5-min Rain = 0
KOD1 201857Z 16009KT 05/M05 A3026 RMK A01 T00521046  RH  049%=      5-min Rain = 0
KOD1 201858Z 15008KT 05/M05 A3026 RMK A01 T00531048  RH  048%=      5-min Rain = 0
KOD1 201859Z 15007KT 05/M05 A3026 RMK A01 T00541045  RH  049%=      5-min Rain = 0
KOD1 201900Z 14008KT 06/M05 A3025 RMK A01 T00551046  RH  048%=      5-min Rain = 0
KOD1 201901Z 14008KT 06/M05 A3025 RMK A01 T00551048  RH  048%=      5-min Rain = 0
KOD1 201902Z 16010KT 06/M05 A3025 RMK A01 T00551045  RH  048%=      5-min Rain = 0
KOD1 201903Z 16010KT 06/M05 A3025 RMK A01 T00551048  RH  047%=      5-min Rain = 0
KOD1 201904Z 17009KT 05/M05 A3025 RMK A01 T00541048  RH  048%=      5-min Rain = 0
KOD1 201905Z 18008KT 05/M05 A3025 RMK A01 T00541046  RH  048%=      5-min Rain = 0
KOD1 201906Z 17010KT 06/M05 A3025 RMK A01 T00551045  RH  049%=      5-min Rain = 0
KOD1 201907Z 15010KT 06/M05 A3025 RMK A01 T00551046  RH  048%=      5-min Rain = 0
KOD1 201908Z 14008KT 06/M05 A3025 RMK A01 T00551049  RH  047%=      5-min Rain = 0
KOD1 201909Z 14008G13KT 06/M05 A3025 RMK A01 T00551046  RH  048%=      5-min Rain = 0
KOD1 201910Z 15012KT 06/M05 A3025 RMK A01 T00551047  RH  048%=      5-min Rain = 0
KOD1 201911Z 15009KT 05/M05 A3025 RMK A01 T00541047  RH  048%=      5-min Rain = 0
KOD1 201912Z 14008KT 05/M05 A3025 RMK A01 T00531047  RH  049%=      5-min Rain = 0
KOD1 201913Z 14009KT 05/M05 A3025 RMK A01 T00531046  RH  049%=      5-min Rain = 0
KOD1 201914Z 14008KT 05/M05 A3025 RMK A01 T00531046  RH  049%=      5-min Rain = 0
KOD1 201915Z 15006KT 05/M05 A3025 RMK A01 T00531045  RH  049%=      5-min Rain = 0
KOD1 201916Z 17009KT 06/M04 A3024 RMK A01 T00551044  RH  049%=      5-min Rain = 0
KOD1 201917Z 16008KT 06/M05 A3024 RMK A01 T00551045  RH  048%=      5-min Rain = 0
KOD1 201918Z 16008KT 06/M04 A3024 RMK A01 T00561044  RH  049%=      5-min Rain = 0
KOD1 201919Z 15011KT 06/M04 A3024 RMK A01 T00561043  RH  049%=      5-min Rain = 0
KOD1 201920Z 15009KT 06/M04 A3024 RMK A01 T00561044  RH  049%=      5-min Rain = 0
KOD1 201921Z 16010KT 06/M04 A3024 RMK A01 T00561043  RH  049%=      5-min Rain = 0
KOD1 201922Z 15009KT 06/M04 A3024 RMK A01 T00571043  RH  049%=      5-min Rain = 0
KOD1 201923Z 15010KT 06/M04 A3023 RMK A01 T00581043  RH  048%=      5-min Rain = 0
KOD1 201924Z 16011KT 06/M04 A3023 RMK A01 T00581043  RH  048%=      5-min Rain = 0
KOD1 201925Z 16010KT 06/M04 A3023 RMK A01 T00591042  RH  048%=      5-min Rain = 0
KOD1 201926Z 15010KT 06/M04 A3023 RMK A01 T00591043  RH  048%=      5-min Rain = 0
KOD1 201927Z 16009KT 06/M04 A3023 RMK A01 T00601043  RH  047%=      5-min Rain = 0
KOD1 201928Z 14008KT 06/M04 A3023 RMK A01 T00611041  RH  048%=      5-min Rain = 0
KOD1 201929Z 13010KT 06/M04 A3023 RMK A01 T00611044  RH  047%=      5-min Rain = 0
KOD1 201930Z 14008KT 06/M04 A3023 RMK A01 T00611044  RH  047%=      5-min Rain = 0
KOD1 201931Z 14010KT 06/M04 A3023 RMK A01 T00611044  RH  047%=      5-min Rain = 0
KOD1 201932Z 14009KT 06/M05 A3023 RMK A01 T00601045  RH  047%=      5-min Rain = 0
KOD1 201933Z 15009KT 06/M04 A3023 RMK A01 T00601043  RH  047%=      5-min Rain = 0
KOD1 201934Z 15012KT 06/M04 A3023 RMK A01 T00611043  RH  047%=      5-min Rain = 0
KOD1 201935Z 15012KT 06/M04 A3022 RMK A01 T00611043  RH  047%=      5-min Rain = 0
KOD1 201936Z 15013KT 06/M04 A3022 RMK A01 T00621044  RH  047%=      5-min Rain = 0
KOD1 201937Z 16012KT 06/M04 A3022 RMK A01 T00621043  RH  047%=      5-min Rain = 0
KOD1 201938Z 15010KT 06/M04 A3022 RMK A01 T00611044  RH  047%=      5-min Rain = 0
KOD1 201939Z 16010KT 06/M04 A3022 RMK A01 T00611043  RH  047%=      5-min Rain = 0
KOD1 201940Z 15010KT 06/M04 A3022 RMK A01 T00621042  RH  047%=      5-min Rain = 0
KOD1 201941Z 15009KT 06/M04 A3022 RMK A01 T00631043  RH  047%=      5-min Rain = 0
KOD1 201942Z 16009KT 06/M04 A3022 RMK A01 T00641040  RH  047%=      5-min Rain = 0
KOD1 201943Z 14010KT 07/M04 A3022 RMK A01 T00651041  RH  047%=      5-min Rain = 0
KOD1 201944Z 16009KT 07/M04 A3022 RMK A01 T00661040  RH  047%=      5-min Rain = 0
KOD1 201945Z 16011KT 07/M04 A3022 RMK A01 T00671042  RH  046%=      5-min Rain = 0
KOD1 201946Z 16012KT 07/M04 A3021 RMK A01 T00671042  RH  046%=      5-min Rain = 0
KOD1 201947Z 17012KT 07/M04 A3021 RMK A01 T00671042  RH  046%=      5-min Rain = 0
KOD1 201948Z 16011KT 07/M04 A3021 RMK A01 T00661043  RH  046%=      5-min Rain = 0
KOD1 201949Z 14011KT 07/M04 A3021 RMK A01 T00661041  RH  046%=      5-min Rain = 0
KOD1 201950Z 15011KT 07/M04 A3021 RMK A01 T00661042  RH  046%=      5-min Rain = 0
KOD1 201951Z 14010KT 07/M04 A3021 RMK A01 T00661040  RH  047%=      5-min Rain = 0
KOD1 201952Z 14009KT 07/M04 A3021 RMK A01 T00661042  RH  046%=      5-min Rain = 0
KOD1 201953Z 14010KT 07/M04 A3021 RMK A01 T00661039  RH  047%=      5-min Rain = 0
KOD1 201954Z 14010KT 07/M04 A3021 RMK A01 T00681040  RH  046%=      5-min Rain = 0
KOD1 201955Z 14011KT 07/M04 A302 RMK A01 T00691038  RH  046%=      5-min Rain = 0
KOD1 201956Z 15010KT 07/M04 A302 RMK A01 T00711039  RH  045%=      5-min Rain = 0
KOD1 201957Z 15010KT 07/M04 A302 RMK A01 T00711039  RH  045%=      5-min Rain = 0
KOD1 201958Z 14010KT 07/M04 A302 RMK A01 T00701040  RH  045%=      5-min Rain = 0
KOD1 201959Z 15011KT 07/M04 A302 RMK A01 T00711038  RH  046%=      5-min Rain = 0
KOD1 202000Z 17011KT 07/M04 A302 RMK A01 T00721037  RH  046%=      5-min Rain = 0
KOD1 202001Z 15012KT 07/M04 A302 RMK A01 T00711039  RH  045%=      5-min Rain = 0
KOD1 202002Z 16011KT 07/M04 A302 RMK A01 T00711037  RH  046%=      5-min Rain = 0
KOD1 202003Z 14010KT 07/M04 A302 RMK A01 T00711038  RH  046%=      5-min Rain = 0
KOD1 202004Z 14010G16KT 07/M04 A302 RMK A01 T00711038  RH  046%=      5-min Rain = 0
KOD1 202005Z 14011KT 07/M04 A302 RMK A01 T00711039  RH  046%=      5-min Rain = 0
KOD1 202006Z 15010KT 07/M04 A302 RMK A01 T00701040  RH  046%=      5-min Rain = 0
KOD1 202007Z 15013KT 07/M04 A302 RMK A01 T00701038  RH  046%=      5-min Rain = 0
KOD1 202008Z 15010KT 07/M04 A3019 RMK A01 T00711038  RH  046%=      5-min Rain = 0
KOD1 202009Z 15008KT 07/M04 A3019 RMK A01 T00721037  RH  046%=      5-min Rain = 0
KOD1 202010Z 14010KT 07/M04 A3019 RMK A01 T00721038  RH  046%=      5-min Rain = 0
KOD1 202011Z 14011KT 07/M04 A3019 RMK A01 T00721038  RH  045%=      5-min Rain = 0
KOD1 202012Z 15009KT 07/M04 A3019 RMK A01 T00721037  RH  046%=      5-min Rain = 0
KOD1 202013Z 16011KT 07/M04 A3019 RMK A01 T00721038  RH  045%=      5-min Rain = 0
KOD1 202014Z 14012KT 07/M04 A3019 RMK A01 T00721039  RH  045%=      5-min Rain = 0
KOD1 202015Z 14010KT 07/M04 A3019 RMK A01 T00711039  RH  045%=      5-min Rain = 0
KOD1 202016Z 14010KT 07/M04 A3019 RMK A01 T00701040  RH  045%=      5-min Rain = 0
KOD1 202017Z 14012KT 07/M04 A3019 RMK A01 T00711039  RH  045%=      5-min Rain = 0
KOD1 202018Z 15010KT 07/M04 A3019 RMK A01 T00711039  RH  046%=      5-min Rain = 0
KOD1 202019Z 16010KT 07/M04 A3019 RMK A01 T00741038  RH  045%=      5-min Rain = 0
KOD1 202020Z 15011KT 08/M04 A3019 RMK A01 T00761039  RH  044%=      5-min Rain = 0
KOD1 202021Z 15011KT 08/M04 A3019 RMK A01 T00751041  RH  044%=      5-min Rain = 0
KOD1 202022Z 14010KT 08/M04 A3019 RMK A01 T00761037  RH  045%=      5-min Rain = 0
KOD1 202023Z 14011KT 08/M04 A3019 RMK A01 T00761038  RH  044%=      5-min Rain = 0
KOD1 202024Z 14010G15KT 08/M04 A3019 RMK A01 T00771038  RH  044%=      5-min Rain = 0
KOD1 202025Z 16013KT 08/M04 A3019 RMK A01 T00781038  RH  043%=      5-min Rain = 0
KOD1 202026Z 17012KT 08/M04 A3018 RMK A01 T00791040  RH  043%=      5-min Rain = 0
KOD1 202027Z 17009KT 08/M04 A3018 RMK A01 T00771040  RH  043%=      5-min Rain = 0
KOD1 202028Z 16009KT 08/M04 A3018 RMK A01 T00781036  RH  044%=      5-min Rain = 0
KOD1 202029Z 16011KT 08/M04 A3018 RMK A01 T00791038  RH  043%=      5-min Rain = 0
KOD1 202030Z 16010KT 08/M04 A3018 RMK A01 T00791038  RH  043%=      5-min Rain = 0
KOD1 202031Z 16009KT 08/M04 A3018 RMK A01 T00791036  RH  044%=      5-min Rain = 0
KOD1 202032Z 15010KT 08/M04 A3018 RMK A01 T00801035  RH  044%=      5-min Rain = 0
KOD1 202033Z 15012KT 08/M04 A3018 RMK A01 T00811038  RH  043%=      5-min Rain = 0
KOD1 202034Z 15010KT 08/M04 A3018 RMK A01 T00801038  RH  043%=      5-min Rain = 0
KOD1 202035Z 15011KT 08/M04 A3018 RMK A01 T00801037  RH  043%=      5-min Rain = 0
KOD1 202036Z 15012KT 08/M04 A3018 RMK A01 T00811040  RH  042%=      5-min Rain = 0
KOD1 202037Z 16012KT 08/M04 A3018 RMK A01 T00811037  RH  043%=      5-min Rain = 0
KOD1 202038Z 15011KT 08/M04 A3018 RMK A01 T00811038  RH  043%=      5-min Rain = 0
KOD1 202039Z 14010KT 08/M04 A3018 RMK A01 T00811040  RH  042%=      5-min Rain = 0
KOD1 202040Z 14011KT 08/M04 A3018 RMK A01 T00801039  RH  043%=      5-min Rain = 0
KOD1 202041Z 17012KT 08/M04 A3018 RMK A01 T00811038  RH  043%=      5-min Rain = 0
KOD1 202042Z 16012KT 08/M04 A3018 RMK A01 T00801038  RH  043%=      5-min Rain = 0
KOD1 202043Z 17011KT 08/M04 A3018 RMK A01 T00811039  RH  042%=      5-min Rain = 0
KOD1 202044Z 17012KT 08/M04 A3018 RMK A01 T00821039  RH  042%=      5-min Rain = 0
KOD1 202045Z 16011KT 08/M04 A3018 RMK A01 T00811038  RH  043%=      5-min Rain = 0
KOD1 202046Z 16011KT 08/M04 A3018 RMK A01 T00821036  RH  043%=      5-min Rain = 0
KOD1 202047Z 16011KT 08/M04 A3018 RMK A01 T00831037  RH  043%=      5-min Rain = 0
KOD1 202048Z 16011KT 08/M04 A3018 RMK A01 T00821038  RH  042%=      5-min Rain = 0
KOD1 202049Z 15010KT 08/M04 A3018 RMK A01 T00811035  RH  044%=      5-min Rain = 0
KOD1 202050Z 16009KT 08/M04 A3018 RMK A01 T00811037  RH  043%=      5-min Rain = 0
KOD1 202051Z 18008KT 08/M04 A3018 RMK A01 T00821036  RH  043%=      5-min Rain = 0
KOD1 202052Z 16008KT 08/M04 A3018 RMK A01 T00821035  RH  044%=      5-min Rain = 0
KOD1 202053Z 15011KT 08/M04 A3018 RMK A01 T00821038  RH  043%=      5-min Rain = 0
KOD1 202054Z 15010KT 08/M04 A3018 RMK A01 T00821037  RH  043%=      5-min Rain = 0
KOD1 202055Z 15008KT 08/M04 A3018 RMK A01 T00821039  RH  042%=      5-min Rain = 0
KOD1 202056Z 16008KT 08/M04 A3018 RMK A01 T00821035  RH  043%=      5-min Rain = 0
KOD1 202057Z 16010KT 09/M03 A3018 RMK A01 T00851034  RH  043%=      5-min Rain = 0
KOD1 202058Z 16010KT 09/M04 A3018 RMK A01 T00851040  RH  041%=      5-min Rain = 0
KOD1 202059Z 16012KT 09/M04 A3018 RMK A01 T00851038  RH  042%=      5-min Rain = 0
KOD1 202100Z 16011KT 08/M04 A3018 RMK A01 T00831040  RH  041%=      5-min Rain = 0
KOD1 202101Z 15010KT 08/M04 A3018 RMK A01 T00821040  RH  042%=      5-min Rain = 0
KOD1 202102Z 15009KT 08/M04 A3018 RMK A01 T00821040  RH  042%=      5-min Rain = 0
KOD1 202103Z 16011KT 08/M04 A3018 RMK A01 T00821039  RH  042%=      5-min Rain = 0
KOD1 202104Z 17010KT 08/M04 A3018 RMK A01 T00821038  RH  042%=      5-min Rain = 0
KOD1 202105Z 17008KT 08/M04 A3018 RMK A01 T00831039  RH  042%=      5-min Rain = 0
KOD1 202106Z 17010KT 08/M04 A3017 RMK A01 T00831038  RH  042%=      5-min Rain = 0
KOD1 202107Z 16010KT 08/M04 A3017 RMK A01 T00821040  RH  042%=      5-min Rain = 0
KOD1 202108Z 16012KT 08/M04 A3017 RMK A01 T00831037  RH  043%=      5-min Rain = 0
KOD1 202109Z 15009KT 08/M04 A3017 RMK A01 T00821039  RH  042%=      5-min Rain = 0
KOD1 202110Z 14011KT 08/M04 A3017 RMK A01 T00831037  RH  043%=      5-min Rain = 0
KOD1 202111Z 14011KT 08/M04 A3017 RMK A01 T00841037  RH  042%=      5-min Rain = 0
KOD1 202112Z 16011KT 08/M04 A3017 RMK A01 T00841037  RH  042%=      5-min Rain = 0
KOD1 202113Z 17012KT 08/M04 A3017 RMK A01 T00841039  RH  041%=      5-min Rain = 0
KOD1 202114Z 17011KT 08/M04 A3016 RMK A01 T00841038  RH  042%=      5-min Rain = 0
KOD1 202115Z 17011KT 08/M04 A3016 RMK A01 T00831036  RH  043%=      5-min Rain = 0
KOD1 202116Z 17011KT 08/M04 A3016 RMK A01 T00841036  RH  043%=      5-min Rain = 0
KOD1 202117Z 17012KT 08/M04 A3016 RMK A01 T00831037  RH  042%=      5-min Rain = 0
KOD1 202118Z 16011KT 08/M04 A3016 RMK A01 T00831037  RH  043%=      5-min Rain = 0
KOD1 202119Z 16011KT 08/M04 A3016 RMK A01 T00831036  RH  043%=      5-min Rain = 0
KOD1 202120Z 15011KT 08/M04 A3016 RMK A01 T00841037  RH  042%=      5-min Rain = 0
KOD1 202121Z 16009KT 08/M04 A3016 RMK A01 T00831036  RH  043%=      5-min Rain = 0
KOD1 202122Z 16010KT 08/M04 A3016 RMK A01 T00831035  RH  043%=      5-min Rain = 0
KOD1 202123Z 16010KT 08/M03 A3016 RMK A01 T00841034  RH  043%=      5-min Rain = 0
KOD1 202124Z 16012KT 08/M04 A3016 RMK A01 T00841035  RH  043%=      5-min Rain = 0
KOD1 202125Z 16009KT 08/M04 A3016 RMK A01 T00841035  RH  043%=      5-min Rain = 0
KOD1 202126Z 15011KT 08/M04 A3016 RMK A01 T00841035  RH  043%=      5-min Rain = 0
KOD1 202127Z 15011KT 08/M04 A3016 RMK A01 T00841036  RH  043%=      5-min Rain = 0
KOD1 202128Z 14010KT 08/M04 A3016 RMK A01 T00841036  RH  043%=      5-min Rain = 0
KOD1 202129Z 15011KT 08/M04 A3016 RMK A01 T00841036  RH  043%=      5-min Rain = 0
KOD1 202130Z 14011KT 08/M03 A3016 RMK A01 T00841034  RH  043%=      5-min Rain = 0
KOD1 202131Z 15012KT 09/M04 A3016 RMK A01 T00851035  RH  042%=      5-min Rain = 0
KOD1 202132Z 15012KT 09/M04 A3016 RMK A01 T00851036  RH  042%=      5-min Rain = 0
KOD1 202133Z 15009KT 08/M04 A3016 RMK A01 T00841037  RH  042%=      5-min Rain = 0
KOD1 202134Z 14010KT 08/M04 A3016 RMK A01 T00831036  RH  043%=      5-min Rain = 0
KOD1 202135Z 13009KT 08/M04 A3016 RMK A01 T00811036  RH  043%=      5-min Rain = 0
KOD1 202136Z 14009KT 08/M04 A3016 RMK A01 T00801036  RH  044%=      5-min Rain = 0
KOD1 202137Z 14009KT 08/M04 A3016 RMK A01 T00791036  RH  044%=      5-min Rain = 0
KOD1 202138Z 14013KT 08/M04 A3016 RMK A01 T00791035  RH  044%=      5-min Rain = 0
KOD1 202139Z 15011KT 08/M04 A3016 RMK A01 T00781035  RH  045%=      5-min Rain = 0
KOD1 202140Z 15012KT 08/M03 A3016 RMK A01 T00781034  RH  045%=      5-min Rain = 0
KOD1 202141Z 15010KT 08/M03 A3016 RMK A01 T00781034  RH  045%=      5-min Rain = 0
KOD1 202142Z 16012KT 08/M03 A3016 RMK A01 T00781033  RH  045%=      5-min Rain = 0
KOD1 202143Z 14010KT 08/M03 A3016 RMK A01 T00781032  RH  046%=      5-min Rain = 0
KOD1 202144Z 14011KT 08/M03 A3016 RMK A01 T00771034  RH  045%=      5-min Rain = 0
KOD1 202145Z 14009KT 08/M03 A3016 RMK A01 T00771033  RH  046%=      5-min Rain = 0
KOD1 202146Z 14007KT 08/M03 A3016 RMK A01 T00771032  RH  046%=      5-min Rain = 0
KOD1 202147Z 15008KT 08/M03 A3016 RMK A01 T00771032  RH  046%=      5-min Rain = 0
KOD1 202148Z 15010KT 08/M03 A3016 RMK A01 T00781032  RH  046%=      5-min Rain = 0
KOD1 202149Z 14009KT 08/M03 A3016 RMK A01 T00771032  RH  046%=      5-min Rain = 0
KOD1 202150Z 14008KT 08/M03 A3016 RMK A01 T00771032  RH  046%=      5-min Rain = 0
KOD1 202151Z 14009KT 08/M03 A3016 RMK A01 T00771031  RH  046%=      5-min Rain = 0
KOD1 202152Z 15010KT 08/M03 A3016 RMK A01 T00771031  RH  046%=      5-min Rain = 0
KOD1 202153Z 14008KT 08/M03 A3016 RMK A01 T00771032  RH  046%=      5-min Rain = 0
KOD1 202154Z 13010KT 08/M03 A3016 RMK A01 T00771031  RH  046%=      5-min Rain = 0
KOD1 202155Z 14010KT 08/M03 A3016 RMK A01 T00771032  RH  046%=      5-min Rain = 0
KOD1 202156Z 13008KT 08/M03 A3016 RMK A01 T00761031  RH  047%=      5-min Rain = 0
KOD1 202157Z 14009KT 08/M03 A3016 RMK A01 T00771029  RH  047%=      5-min Rain = 0
KOD1 202158Z 15009KT 08/M03 A3016 RMK A01 T00771030  RH  047%=      5-min Rain = 0
KOD1 202159Z 14009KT 08/M03 A3016 RMK A01 T00771031  RH  046%=      5-min Rain = 0
KOD1 202200Z 14008KT 08/M03 A3016 RMK A01 T00761031  RH  046%=      5-min Rain = 0
KOD1 202201Z 14009KT 08/M03 A3016 RMK A01 T00761031  RH  047%=      5-min Rain = 0
KOD1 202202Z 14009KT 08/M03 A3016 RMK A01 T00771029  RH  047%=      5-min Rain = 0
KOD1 202203Z 14010KT 08/M03 A3016 RMK A01 T00771030  RH  047%=      5-min Rain = 0
KOD1 202204Z 13010KT 08/M03 A3016 RMK A01 T00771030  RH  047%=      5-min Rain = 0
KOD1 202205Z 14010KT 08/M03 A3016 RMK A01 T00771029  RH  047%=      5-min Rain = 0
KOD1 202206Z 14009KT 08/M03 A3016 RMK A01 T00771030  RH  047%=      5-min Rain = 0
KOD1 202207Z 15009KT 08/M03 A3016 RMK A01 T00771029  RH  047%=      5-min Rain = 0
KOD1 202208Z 15009KT 08/M03 A3016 RMK A01 T00771029  RH  047%=      5-min Rain = 0
KOD1 202209Z 14009KT 08/M03 A3016 RMK A01 T00771030  RH  047%=      5-min Rain = 0
KOD1 202210Z 15009KT 08/M03 A3016 RMK A01 T00771029  RH  047%=      5-min Rain = 0
KOD1 202211Z 15008KT 08/M03 A3016 RMK A01 T00781028  RH  047%=      5-min Rain = 0
KOD1 202212Z 15008KT 08/M03 A3016 RMK A01 T00781030  RH  047%=      5-min Rain = 0
KOD1 202213Z 14008KT 08/M03 A3016 RMK A01 T00781029  RH  047%=      5-min Rain = 0
KOD1 202214Z 14008KT 08/M03 A3016 RMK A01 T00781029  RH  047%=      5-min Rain = 0
KOD1 202215Z 14010KT 08/M03 A3016 RMK A01 T00781030  RH  046%=      5-min Rain = 0
KOD1 202216Z 13009KT 08/M03 A3016 RMK A01 T00781029  RH  046%=      5-min Rain = 0
KOD1 202217Z 13007KT 08/M03 A3016 RMK A01 T00781029  RH  046%=      5-min Rain = 0
KOD1 202218Z 13006KT 08/M03 A3016 RMK A01 T00791028  RH  047%=      5-min Rain = 0
KOD1 202219Z 13009KT 08/M03 A3016 RMK A01 T00791030  RH  046%=      5-min Rain = 0
KOD1 202220Z 14010KT 08/M03 A3016 RMK A01 T00791030  RH  046%=      5-min Rain = 0
KOD1 202221Z 14011KT 08/M03 A3016 RMK A01 T00791031  RH  046%=      5-min Rain = 0
KOD1 202222Z 15010KT 08/M03 A3016 RMK A01 T00781031  RH  046%=      5-min Rain = 0
KOD1 202223Z 14012KT 08/M03 A3015 RMK A01 T00781032  RH  046%=      5-min Rain = 0
KOD1 202224Z 14011KT 08/M03 A3015 RMK A01 T00771032  RH  046%=      5-min Rain = 0
KOD1 202225Z 13010KT 08/M03 A3015 RMK A01 T00781031  RH  046%=      5-min Rain = 0
KOD1 202226Z 14011KT 08/M03 A3015 RMK A01 T00781032  RH  046%=      5-min Rain = 0
KOD1 202227Z 14009KT 08/M03 A3015 RMK A01 T00781030  RH  046%=      5-min Rain = 0
KOD1 202228Z 14008KT 08/M03 A3015 RMK A01 T00781029  RH  047%=      5-min Rain = 0
KOD1 202229Z 15009KT 08/M03 A3015 RMK A01 T00791030  RH  046%=      5-min Rain = 0
KOD1 202230Z 15011KT 08/M03 A3015 RMK A01 T00791030  RH  046%=      5-min Rain = 0
KOD1 202231Z 14010KT 08/M03 A3015 RMK A01 T00791029  RH  046%=      5-min Rain = 0
KOD1 202232Z 13012KT 08/M03 A3015 RMK A01 T00791031  RH  046%=      5-min Rain = 0
KOD1 202233Z 14011KT 08/M03 A3015 RMK A01 T00791032  RH  045%=      5-min Rain = 0
KOD1 202234Z 14011KT 08/M03 A3015 RMK A01 T00791031  RH  046%=      5-min Rain = 0
KOD1 202235Z 14009KT 08/M03 A3015 RMK A01 T00791031  RH  046%=      5-min Rain = 0
KOD1 202236Z 14009KT 08/M03 A3015 RMK A01 T00791032  RH  045%=      5-min Rain = 0
KOD1 202237Z 14009KT 08/M03 A3015 RMK A01 T00791031  RH  046%=      5-min Rain = 0
KOD1 202238Z 14010KT 08/M03 A3015 RMK A01 T00801031  RH  046%=      5-min Rain = 0
KOD1 202239Z 14011KT 08/M03 A3015 RMK A01 T00801031  RH  045%=      5-min Rain = 0
KOD1 202240Z 14011KT 08/M03 A3015 RMK A01 T00801031  RH  045%=      5-min Rain = 0
KOD1 202241Z 14012KT 08/M03 A3015 RMK A01 T00791032  RH  045%=      5-min Rain = 0
KOD1 202242Z 14011KT 08/M03 A3015 RMK A01 T00791032  RH  045%=      5-min Rain = 0
KOD1 202243Z 14009KT 08/M03 A3015 RMK A01 T00791031  RH  046%=      5-min Rain = 0
KOD1 202244Z 14009KT 08/M03 A3015 RMK A01 T00791030  RH  046%=      5-min Rain = 0
KOD1 202245Z 14011KT 08/M03 A3015 RMK A01 T00791032  RH  045%=      5-min Rain = 0
KOD1 202246Z 14009KT 08/M03 A3015 RMK A01 T00791032  RH  046%=      5-min Rain = 0
KOD1 202247Z 13013KT 08/M04 A3015 RMK A01 T00781035  RH  044%=      5-min Rain = 0
KOD1 202248Z 13011KT 08/M03 A3015 RMK A01 T00781034  RH  045%=      5-min Rain = 0
KOD1 202249Z 13010KT 08/M03 A3015 RMK A01 T00771034  RH  045%=      5-min Rain = 0
KOD1 202250Z 13011KT 08/M03 A3015 RMK A01 T00771034  RH  045%=      5-min Rain = 0
KOD1 202251Z 13011KT 08/M03 A3015 RMK A01 T00771034  RH  045%=      5-min Rain = 0
KOD1 202252Z 14010KT 08/M03 A3014 RMK A01 T00771033  RH  046%=      5-min Rain = 0
KOD1 202253Z 14009KT 08/M03 A3015 RMK A01 T00771032  RH  046%=      5-min Rain = 0
KOD1 202254Z 14010KT 08/M03 A3015 RMK A01 T00771033  RH  046%=      5-min Rain = 0
KOD1 202255Z 14011KT 08/M03 A3015 RMK A01 T00771034  RH  045%=      5-min Rain = 0
KOD1 202256Z 14009KT 08/M03 A3015 RMK A01 T00761034  RH  046%=      5-min Rain = 0
KOD1 202257Z 14008KT 08/M03 A3015 RMK A01 T00761032  RH  046%=      5-min Rain = 0
KOD1 202258Z 14010KT 08/M03 A3015 RMK A01 T00761033  RH  046%=      5-min Rain = 0
KOD1 202259Z 13011KT 08/M04 A3015 RMK A01 T00761035  RH  045%=      5-min Rain = 0
KOD1 202300Z 13010KT 08/M04 A3014 RMK A01 T00761035  RH  045%=      5-min Rain = 0
KOD1 202301Z 13011KT 08/M04 A3014 RMK A01 T00761035  RH  045%=      5-min Rain = 0
KOD1 202302Z 13010KT 08/M04 A3014 RMK A01 T00751036  RH  045%=      5-min Rain = 0
KOD1 202303Z 13010KT 08/M04 A3014 RMK A01 T00751035  RH  045%=      5-min Rain = 0
KOD1 202304Z 14010KT 08/M04 A3014 RMK A01 T00751035  RH  045%=      5-min Rain = 0
KOD1 202305Z 14010KT 08/M03 A3014 RMK A01 T00761034  RH  046%=      5-min Rain = 0
KOD1 202306Z 14010KT 08/M04 A3014 RMK A01 T00761035  RH  045%=      5-min Rain = 0
KOD1 202307Z 14009KT 08/M03 A3014 RMK A01 T00761034  RH  046%=      5-min Rain = 0
KOD1 202308Z 14009KT 08/M03 A3014 RMK A01 T00761033  RH  046%=      5-min Rain = 0
KOD1 202309Z 14008KT 08/M03 A3014 RMK A01 T00761034  RH  045%=      5-min Rain = 0
KOD1 202310Z 14008KT 08/M03 A3014 RMK A01 T00761034  RH  045%=      5-min Rain = 0
KOD1 202311Z 14008KT 08/M03 A3014 RMK A01 T00771033  RH  046%=      5-min Rain = 0
KOD1 202312Z 13010KT 08/M03 A3014 RMK A01 T00771033  RH  046%=      5-min Rain = 0
KOD1 202313Z 13009KT 08/M03 A3014 RMK A01 T00771033  RH  046%=      5-min Rain = 0
KOD1 202314Z 14008KT 08/M03 A3014 RMK A01 T00771033  RH  046%=      5-min Rain = 0
KOD1 202315Z 13008KT 08/M03 A3014 RMK A01 T00771032  RH  046%=      5-min Rain = 0
KOD1 202316Z 13009KT 08/M03 A3014 RMK A01 T00771033  RH  045%=      5-min Rain = 0
KOD1 202317Z 13008KT 08/M03 A3014 RMK A01 T00771033  RH  046%=      5-min Rain = 0
KOD1 202318Z 13009KT 08/M03 A3014 RMK A01 T00761032  RH  046%=      5-min Rain = 0
KOD1 202319Z 12007KT 08/M03 A3014 RMK A01 T00761032  RH  046%=      5-min Rain = 0
KOD1 202320Z 12008KT 08/M03 A3014 RMK A01 T00751032  RH  047%=      5-min Rain = 0
KOD1 202321Z 11007KT 07/M03 A3014 RMK A01 T00741031  RH  047%=      5-min Rain = 0
KOD1 202322Z 11008KT 07/M03 A3014 RMK A01 T00731031  RH  048%=      5-min Rain = 0
KOD1 202323Z 11007KT 07/M03 A3014 RMK A01 T00721031  RH  048%=      5-min Rain = 0
KOD1 202324Z 12010KT 07/M03 A3014 RMK A01 T00721032  RH  048%=      5-min Rain = 0
KOD1 202325Z 12009KT 07/M03 A3014 RMK A01 T00711032  RH  048%=      5-min Rain = 0
KOD1 202326Z 11007KT 07/M03 A3014 RMK A01 T00711032  RH  048%=      5-min Rain = 0
KOD1 202327Z 12008KT 07/M03 A3014 RMK A01 T00701031  RH  048%=      5-min Rain = 0
KOD1 202328Z 12008KT 07/M03 A3014 RMK A01 T00701032  RH  049%=      5-min Rain = 0
KOD1 202329Z 12008KT 07/M03 A3014 RMK A01 T00691031  RH  049%=      5-min Rain = 0
KOD1 202330Z 12009KT 07/M03 A3014 RMK A01 T00691031  RH  049%=      5-min Rain = 0
KOD1 202331Z 12010KT 07/M03 A3014 RMK A01 T00691032  RH  049%=      5-min Rain = 0
KOD1 202332Z 12008KT 07/M03 A3013 RMK A01 T00681031  RH  049%=      5-min Rain = 0
KOD1 202333Z 12010KT 07/M03 A3013 RMK A01 T00681031  RH  049%=      5-min Rain = 0
KOD1 202334Z 12009KT 07/M03 A3013 RMK A01 T00681031  RH  049%=      5-min Rain = 0
KOD1 202335Z 11008KT 07/M03 A3013 RMK A01 T00681031  RH  049%=      5-min Rain = 0
KOD1 202336Z 11009KT 07/M03 A3013 RMK A01 T00671031  RH  050%=      5-min Rain = 0
KOD1 202337Z 11009KT 07/M03 A3013 RMK A01 T00661031  RH  050%=      5-min Rain = 0
KOD1 202338Z 11010KT 07/M03 A3013 RMK A01 T00661031  RH  050%=      5-min Rain = 0
KOD1 202339Z 11008KT 07/M03 A3013 RMK A01 T00651030  RH  051%=      5-min Rain = 0
KOD1 202340Z 11010KT 06/M03 A3013 RMK A01 T00641030  RH  051%=      5-min Rain = 0
KOD1 202341Z 12010KT 06/M03 A3013 RMK A01 T00631031  RH  051%=      5-min Rain = 0
KOD1 202342Z 12009KT 06/M03 A3013 RMK A01 T00631031  RH  051%=      5-min Rain = 0
KOD1 202343Z 11010KT 06/M03 A3012 RMK A01 T00631031  RH  051%=      5-min Rain = 0
KOD1 202344Z 12010KT 06/M03 A3012 RMK A01 T00621031  RH  051%=      5-min Rain = 0
KOD1 202345Z 12011KT 06/M03 A3012 RMK A01 T00621031  RH  051%=      5-min Rain = 0
KOD1 202346Z 12010KT 06/M03 A3012 RMK A01 T00621030  RH  052%=      5-min Rain = 0
KOD1 202347Z 12010KT 06/M03 A3012 RMK A01 T00611030  RH  052%=      5-min Rain = 0
KOD1 202348Z 12009KT 06/M03 A3012 RMK A01 T00611030  RH  052%=      5-min Rain = 0
KOD1 202349Z 12009KT 06/M03 A3013 RMK A01 T00601030  RH  052%=      5-min Rain = 0
KOD1 202350Z 12008KT 06/M03 A3013 RMK A01 T00591030  RH  053%=      5-min Rain = 0
KOD1 202351Z 12010KT 06/M03 A3013 RMK A01 T00591030  RH  053%=      5-min Rain = 0
KOD1 202352Z 12009KT 06/M03 A3013 RMK A01 T00591030  RH  053%=      5-min Rain = 0
KOD1 202353Z 12009KT 06/M03 A3013 RMK A01 T00581030  RH  053%=      5-min Rain = 0
KOD1 202354Z 12008KT 06/M03 A3013 RMK A01 T00581030  RH  053%=      5-min Rain = 0
KOD1 202355Z 12008KT 06/M03 A3013 RMK A01 T00581030  RH  053%=      5-min Rain = 0
KOD1 202356Z 12009KT 06/M03 A3013 RMK A01 T00571030  RH  053%=      5-min Rain = 0
KOD1 202357Z 12009KT 06/M03 A3013 RMK A01 T00571030  RH  053%=      5-min Rain = 0
KOD1 202358Z 12009KT 06/M03 A3013 RMK A01 T00571030  RH  053%=      5-min Rain = 0
KOD1 202359Z 12008KT 06/M03 A3013 RMK A01 T00571031  RH  053%=      5-min Rain = 0
KOD1 210000Z 11007KT 06/M03 A3013 RMK A01 T00561031  RH  054%=      5-min Rain = 0
KOD1 210001Z 12008KT 06/M03 A3012 RMK A01 T00551031  RH  054%=      5-min Rain = 0
KOD1 210002Z 12008KT 06/M03 A3012 RMK A01 T00551030  RH  054%=      5-min Rain = 0
KOD1 210003Z 12008KT 06/M03 A3012 RMK A01 T00551030  RH  054%=      5-min Rain = 0
KOD1 210004Z 12008KT 05/M03 A3012 RMK A01 T00541031  RH  054%=      5-min Rain = 0
KOD1 210005Z 12009KT 06/M03 A3012 RMK A01 T00551031  RH  054%=      5-min Rain = 0
KOD1 210006Z 12009KT 06/M03 A3012 RMK A01 T00551031  RH  054%=      5-min Rain = 0
KOD1 210007Z 12009KT 05/M03 A3012 RMK A01 T00541030  RH  054%=      5-min Rain = 0
KOD1 210008Z 12009KT 05/M03 A3012 RMK A01 T00541030  RH  054%=      5-min Rain = 0
KOD1 210009Z 12009KT 05/M03 A3012 RMK A01 T00541031  RH  054%=      5-min Rain = 0
KOD1 210010Z 12009KT 05/M03 A3012 RMK A01 T00541030  RH  055%=      5-min Rain = 0
KOD1 210011Z 12009KT 05/M03 A3012 RMK A01 T00541030  RH  055%=      5-min Rain = 0
KOD1 210012Z 12009KT 05/M03 A3012 RMK A01 T00541031  RH  055%=      5-min Rain = 0
KOD1 210013Z 12009KT 05/M03 A3012 RMK A01 T00531031  RH  055%=      5-min Rain = 0
KOD1 210014Z 12009KT 05/M03 A3012 RMK A01 T00531031  RH  055%=      5-min Rain = 0
KOD1 210015Z 12009KT 05/M03 A3012 RMK A01 T00531031  RH  055%=      5-min Rain = 0
KOD1 210016Z 12009KT 05/M03 A3012 RMK A01 T00531031  RH  055%=      5-min Rain = 0
KOD1 210017Z 12009KT 05/M03 A3012 RMK A01 T00531031  RH  055%=      5-min Rain = 0
KOD1 210018Z 12010KT 05/M03 A3012 RMK A01 T00531031  RH  055%=      5-min Rain = 0
KOD1 210019Z 12009KT 05/M03 A3012 RMK A01 T00531031  RH  055%=      5-min Rain = 0
KOD1 210020Z 12009KT 05/M03 A3012 RMK A01 T00531031  RH  055%=      5-min Rain = 0
KOD1 210021Z 12008KT 05/M03 A3012 RMK A01 T00521030  RH  055%=      5-min Rain = 0
KOD1 210022Z 12009KT 05/M03 A3012 RMK A01 T00521030  RH  055%=      5-min Rain = 0
KOD1 210023Z 12009KT 05/M03 A3012 RMK A01 T00521030  RH  055%=      5-min Rain = 0
KOD1 210024Z 12009KT 05/M03 A3012 RMK A01 T00511030  RH  056%=      5-min Rain = 0
KOD1 210025Z 12009KT 05/M03 A3012 RMK A01 T00511030  RH  056%=      5-min Rain = 0
KOD1 210026Z 12009KT 05/M03 A3012 RMK A01 T00511030  RH  056%=      5-min Rain = 0
KOD1 210027Z 11010KT 05/M03 A3012 RMK A01 T00501030  RH  056%=      5-min Rain = 0
KOD1 210028Z 12009KT 05/M03 A3012 RMK A01 T00501030  RH  057%=      5-min Rain = 0
KOD1 210029Z 12009KT 05/M03 A3012 RMK A01 T00491029  RH  057%=      5-min Rain = 0
KOD1 210030Z 11010KT 05/M03 A3012 RMK A01 T00491029  RH  057%=      5-min Rain = 0
KOD1 210031Z 12010KT 05/M03 A3012 RMK A01 T00491029  RH  057%=      5-min Rain = 0
KOD1 210032Z 12010KT 05/M03 A3012 RMK A01 T00491029  RH  057%=      5-min Rain = 0
KOD1 210033Z 12011KT 05/M03 A3012 RMK A01 T00491029  RH  057%=      5-min Rain = 0
KOD1 210034Z 12010KT 05/M03 A3012 RMK A01 T00481028  RH  058%=      5-min Rain = 0
KOD1 210035Z 12011KT 05/M03 A3011 RMK A01 T00481028  RH  058%=      5-min Rain = 0
KOD1 210036Z 12011KT 05/M03 A3011 RMK A01 T00491028  RH  058%=      5-min Rain = 0
KOD1 210037Z 12011KT 05/M03 A3011 RMK A01 T00481028  RH  058%=      5-min Rain = 0
KOD1 210038Z 12010KT 05/M03 A3011 RMK A01 T00491028  RH  058%=      5-min Rain = 0
KOD1 210039Z 12011KT 05/M03 A3011 RMK A01 T00491028  RH  057%=      5-min Rain = 0
KOD1 210040Z 12010KT 05/M03 A3011 RMK A01 T00491028  RH  058%=      5-min Rain = 0
KOD1 210041Z 12010KT 05/M03 A3011 RMK A01 T00481028  RH  058%=      5-min Rain = 0
KOD1 210042Z 12011KT 05/M03 A3012 RMK A01 T00481028  RH  058%=      5-min Rain = 0
KOD1 210043Z 12011KT 05/M03 A3012 RMK A01 T00481028  RH  058%=      5-min Rain = 0
KOD1 210044Z 12011KT 05/M03 A3012 RMK A01 T00481028  RH  058%=      5-min Rain = 0
KOD1 210045Z 12011KT 05/M03 A3012 RMK A01 T00481028  RH  058%=      5-min Rain = 0
KOD1 210046Z 12010KT 05/M03 A3012 RMK A01 T00481028  RH  058%=      5-min Rain = 0
KOD1 210047Z 12011KT 05/M03 A3012 RMK A01 T00481027  RH  058%=      5-min Rain = 0
KOD1 210048Z 12010KT 05/M03 A3012 RMK A01 T00471027  RH  058%=      5-min Rain = 0
KOD1 210049Z 12011KT 05/M03 A3012 RMK A01 T00471027  RH  059%=      5-min Rain = 0
KOD1 210050Z 12011KT 05/M03 A3012 RMK A01 T00471027  RH  059%=      5-min Rain = 0
KOD1 210051Z 12010KT 05/M03 A3012 RMK A01 T00471027  RH  059%=      5-min Rain = 0
KOD1 210052Z 12010KT 05/M03 A3012 RMK A01 T00461027  RH  059%=      5-min Rain = 0
KOD1 210053Z 12010KT 05/M03 A3012 RMK A01 T00461027  RH  059%=      5-min Rain = 0
KOD1 210054Z 12010KT 05/M03 A3012 RMK A01 T00461027  RH  060%=      5-min Rain = 0
KOD1 210055Z 12010KT 05/M03 A3012 RMK A01 T00451026  RH  060%=      5-min Rain = 0
KOD1 210056Z 12010KT 05/M03 A3012 RMK A01 T00451026  RH  060%=      5-min Rain = 0
KOD1 210057Z 12010KT 05/M03 A3012 RMK A01 T00451026  RH  060%=      5-min Rain = 0
KOD1 210058Z 11010KT 05/M03 A3012 RMK A01 T00451026  RH  060%=      5-min Rain = 0
KOD1 210059Z 12010KT 04/M03 A3012 RMK A01 T00441026  RH  060%=      5-min Rain = 0
KOD1 210100Z 12010KT 04/M03 A3012 RMK A01 T00441026  RH  060%=      5-min Rain = 0
KOD1 210101Z 12010KT 04/M03 A3012 RMK A01 T00441026  RH  060%=      5-min Rain = 0
KOD1 210102Z 12010KT 04/M03 A3012 RMK A01 T00441026  RH  060%=      5-min Rain = 0
KOD1 210103Z 12010KT 04/M03 A3012 RMK A01 T00441025  RH  061%=      5-min Rain = 0
KOD1 210104Z 11010KT 04/M03 A3012 RMK A01 T00441025  RH  061%=      5-min Rain = 0
KOD1 210105Z 12009KT 04/M03 A3012 RMK A01 T00441025  RH  061%=      5-min Rain = 0
KOD1 210106Z 12010KT 04/M03 A3011 RMK A01 T00431025  RH  061%=      5-min Rain = 0
KOD1 210107Z 11010KT 04/M03 A3011 RMK A01 T00431025  RH  061%=      5-min Rain = 0
KOD1 210108Z 11011KT 04/M02 A3012 RMK A01 T00431024  RH  061%=      5-min Rain = 0
KOD1 210109Z 12010KT 04/M02 A3012 RMK A01 T00431024  RH  062%=      5-min Rain = 0
KOD1 210110Z 11010KT 04/M02 A3011 RMK A01 T00431024  RH  062%=      5-min Rain = 0
KOD1 210111Z 11010KT 04/M02 A3011 RMK A01 T00421024  RH  062%=      5-min Rain = 0
KOD1 210112Z 11011KT 04/M02 A3011 RMK A01 T00421024  RH  062%=      5-min Rain = 0
KOD1 210113Z 12010KT 04/M02 A3011 RMK A01 T00421024  RH  062%=      5-min Rain = 0
KOD1 210114Z 11011KT 04/M02 A3011 RMK A01 T00421024  RH  062%=      5-min Rain = 0
KOD1 210115Z 11010KT 04/M02 A3011 RMK A01 T00421023  RH  062%=      5-min Rain = 0
KOD1 210116Z 11011KT 04/M02 A3011 RMK A01 T00421023  RH  063%=      5-min Rain = 0
KOD1 210117Z 12011KT 04/M02 A3011 RMK A01 T00421023  RH  063%=      5-min Rain = 0
KOD1 210118Z 11011KT 04/M02 A3011 RMK A01 T00421023  RH  063%=      5-min Rain = 0
KOD1 210119Z 12010KT 04/M02 A3011 RMK A01 T00421023  RH  063%=      5-min Rain = 0
KOD1 210120Z 11010KT 04/M02 A3011 RMK A01 T00421022  RH  063%=      5-min Rain = 0
KOD1 210121Z 12011KT 04/M02 A3011 RMK A01 T00421022  RH  063%=      5-min Rain = 0
KOD1 210122Z 12011KT 04/M02 A3011 RMK A01 T00421022  RH  063%=      5-min Rain = 0
KOD1 210123Z 12011KT 04/M02 A3011 RMK A01 T00421022  RH  063%=      5-min Rain = 0
KOD1 210124Z 12011KT 04/M02 A3011 RMK A01 T00421022  RH  063%=      5-min Rain = 0
KOD1 210125Z 12010KT 04/M02 A3011 RMK A01 T00411022  RH  063%=      5-min Rain = 0
KOD1 210126Z 11010KT 04/M02 A3011 RMK A01 T00411022  RH  063%=      5-min Rain = 0
KOD1 210127Z 12011KT 04/M02 A3011 RMK A01 T00411022  RH  064%=      5-min Rain = 0
KOD1 210128Z 12011KT 04/M02 A3011 RMK A01 T00411022  RH  064%=      5-min Rain = 0
KOD1 210129Z 12011KT 04/M02 A3011 RMK A01 T00411022  RH  064%=      5-min Rain = 0
KOD1 210130Z 11011KT 04/M02 A3011 RMK A01 T00411022  RH  064%=      5-min Rain = 0
KOD1 210131Z 11012KT 04/M02 A3011 RMK A01 T00411022  RH  064%=      5-min Rain = 0
KOD1 210132Z 12012KT 04/M02 A3012 RMK A01 T00411022  RH  064%=      5-min Rain = 0
KOD1 210133Z 12012KT 04/M02 A3011 RMK A01 T00411022  RH  064%=      5-min Rain = 0
KOD1 210134Z 12012KT 04/M02 A3011 RMK A01 T00421022  RH  063%=      5-min Rain = 0
KOD1 210135Z 12011KT 04/M02 A3011 RMK A01 T00411022  RH  063%=      5-min Rain = 0
KOD1 210136Z 12011KT 04/M02 A3011 RMK A01 T00411022  RH  064%=      5-min Rain = 0
KOD1 210137Z 12010KT 04/M02 A3011 RMK A01 T00411022  RH  064%=      5-min Rain = 0
KOD1 210138Z 11011KT 04/M02 A3011 RMK A01 T00401021  RH  064%=      5-min Rain = 0
KOD1 210139Z 12010KT 04/M02 A3011 RMK A01 T00401022  RH  064%=      5-min Rain = 0
KOD1 210140Z 12010KT 04/M02 A3011 RMK A01 T00401022  RH  064%=      5-min Rain = 0
KOD1 210141Z 12011KT 04/M02 A3011 RMK A01 T00401022  RH  064%=      5-min Rain = 0
KOD1 210142Z 11011KT 04/M02 A3011 RMK A01 T00401021  RH  064%=      5-min Rain = 0
KOD1 210143Z 12010KT 04/M02 A3011 RMK A01 T00401021  RH  064%=      5-min Rain = 0
KOD1 210144Z 12011KT 04/M02 A3011 RMK A01 T00391021  RH  065%=      5-min Rain = 0
KOD1 210145Z 12010KT 04/M02 A3011 RMK A01 T00391021  RH  065%=      5-min Rain = 0
KOD1 210146Z 12011KT 04/M02 A3011 RMK A01 T00391021  RH  065%=      5-min Rain = 0
KOD1 210147Z 11009KT 04/M02 A3011 RMK A01 T00391021  RH  065%=      5-min Rain = 0
KOD1 210148Z 11011KT 04/M02 A3011 RMK A01 T00381021  RH  065%=      5-min Rain = 0
KOD1 210149Z 11010KT 04/M02 A3011 RMK A01 T00381021  RH  065%=      5-min Rain = 0
KOD1 210150Z 11011KT 04/M02 A3011 RMK A01 T00391021  RH  065%=      5-min Rain = 0
KOD1 210151Z 12010KT 04/M02 A3011 RMK A01 T00391021  RH  065%=      5-min Rain = 0
KOD1 210152Z 12010KT 04/M02 A3011 RMK A01 T00381021  RH  065%=      5-min Rain = 0
KOD1 210153Z 12011KT 04/M02 A3011 RMK A01 T00391021  RH  065%=      5-min Rain = 0
KOD1 210154Z 11010KT 04/M02 A3011 RMK A01 T00391021  RH  065%=      5-min Rain = 0
KOD1 210155Z 11009KT 04/M02 A3011 RMK A01 T00381021  RH  065%=      5-min Rain = 0
KOD1 210156Z 11012KT 04/M02 A3011 RMK A01 T00381021  RH  066%=      5-min Rain = 0
KOD1 210157Z 11012KT 04/M02 A3011 RMK A01 T00391020  RH  065%=      5-min Rain = 0
KOD1 210158Z 11011KT 04/M02 A3011 RMK A01 T00391021  RH  065%=      5-min Rain = 0
KOD1 210159Z 11011KT 04/M02 A3011 RMK A01 T00381021  RH  065%=      5-min Rain = 0
KOD1 210200Z 11010KT 04/M02 A3011 RMK A01 T00381021  RH  065%=      5-min Rain = 0
KOD1 210201Z 11010KT 04/M02 A3011 RMK A01 T00381021  RH  066%=      5-min Rain = 0
KOD1 210202Z 11010KT 04/M02 A3011 RMK A01 T00381021  RH  066%=      5-min Rain = 0
KOD1 210203Z 11010KT 04/M02 A3011 RMK A01 T00371021  RH  066%=      5-min Rain = 0
KOD1 210204Z 11010KT 04/M02 A3011 RMK A01 T00371021  RH  066%=      5-min Rain = 0
KOD1 210205Z 11009KT 04/M02 A3011 RMK A01 T00361021  RH  066%=      5-min Rain = 0
KOD1 210206Z 11010KT 04/M02 A3011 RMK A01 T00361021  RH  067%=      5-min Rain = 0
KOD1 210207Z 11010KT 04/M02 A3011 RMK A01 T00361020  RH  067%=      5-min Rain = 0
KOD1 210208Z 11009KT 04/M02 A301 RMK A01 T00351020  RH  067%=      5-min Rain = 0
KOD1 210209Z 11010KT 04/M02 A301 RMK A01 T00351020  RH  067%=      5-min Rain = 0
KOD1 210210Z 11011KT 04/M02 A301 RMK A01 T00351020  RH  067%=      5-min Rain = 0
KOD1 210211Z 12010KT 04/M02 A301 RMK A01 T00351020  RH  067%=      5-min Rain = 0
KOD1 210212Z 11009KT 04/M02 A301 RMK A01 T00351021  RH  067%=      5-min Rain = 0
KOD1 210213Z 11010KT 03/M02 A301 RMK A01 T00341020  RH  067%=      5-min Rain = 0
KOD1 210214Z 11010KT 03/M02 A301 RMK A01 T00341020  RH  067%=      5-min Rain = 0
KOD1 210215Z 11011KT 03/M02 A301 RMK A01 T00341020  RH  067%=      5-min Rain = 0
KOD1 210216Z 11010KT 04/M02 A301 RMK A01 T00351021  RH  067%=      5-min Rain = 0
KOD1 210217Z 11011KT 04/M02 A301 RMK A01 T00351021  RH  067%=      5-min Rain = 0
KOD1 210218Z 11010KT 04/M02 A301 RMK A01 T00351021  RH  067%=      5-min Rain = 0
KOD1 210219Z 12009KT 04/M02 A3011 RMK A01 T00351021  RH  066%=      5-min Rain = 0
KOD1 210220Z 11010KT 04/M02 A3011 RMK A01 T00351021  RH  066%=      5-min Rain = 0
KOD1 210221Z 11010KT 04/M02 A3011 RMK A01 T00351021  RH  067%=      5-min Rain = 0
KOD1 210222Z 11010KT 04/M02 A301 RMK A01 T00351021  RH  067%=      5-min Rain = 0
KOD1 210223Z 11009KT 04/M02 A301 RMK A01 T00351021  RH  067%=      5-min Rain = 0
KOD1 210224Z 11010KT 03/M02 A301 RMK A01 T00341021  RH  067%=      5-min Rain = 0
KOD1 210225Z 11008KT 03/M02 A301 RMK A01 T00341021  RH  067%=      5-min Rain = 0
KOD1 210226Z 11009KT 03/M02 A301 RMK A01 T00331022  RH  067%=      5-min Rain = 0
KOD1 210227Z 11010KT 03/M02 A301 RMK A01 T00341022  RH  067%=      5-min Rain = 0
KOD1 210228Z 12010KT 03/M02 A301 RMK A01 T00341022  RH  067%=      5-min Rain = 0
KOD1 210229Z 11010KT 03/M02 A301 RMK A01 T00341022  RH  067%=      5-min Rain = 0
KOD1 210230Z 12009KT 03/M02 A301 RMK A01 T00341022  RH  067%=      5-min Rain = 0
KOD1 210231Z 12010KT 03/M02 A301 RMK A01 T00341022  RH  067%=      5-min Rain = 0
KOD1 210232Z 12010KT 03/M02 A301 RMK A01 T00341022  RH  067%=      5-min Rain = 0
KOD1 210233Z 12010KT 03/M02 A301 RMK A01 T00341022  RH  067%=      5-min Rain = 0
KOD1 210234Z 12010KT 03/M02 A301 RMK A01 T00341022  RH  067%=      5-min Rain = 0
KOD1 210235Z 12010KT 03/M02 A301 RMK A01 T00341023  RH  067%=      5-min Rain = 0
KOD1 210236Z 12010KT 03/M02 A301 RMK A01 T00341023  RH  066%=      5-min Rain = 0
KOD1 210237Z 12011KT 03/M02 A301 RMK A01 T00341023  RH  067%=      5-min Rain = 0
KOD1 210238Z 12011KT 03/M02 A301 RMK A01 T00341023  RH  066%=      5-min Rain = 0
KOD1 210239Z 11011KT 03/M02 A301 RMK A01 T00341023  RH  066%=      5-min Rain = 0
KOD1 210240Z 12011KT 03/M02 A301 RMK A01 T00341023  RH  066%=      5-min Rain = 0
KOD1 210241Z 12011KT 03/M02 A301 RMK A01 T00341023  RH  066%=      5-min Rain = 0
KOD1 210242Z 12011KT 03/M02 A301 RMK A01 T00341024  RH  066%=      5-min Rain = 0
KOD1 210243Z 12010KT 04/M02 A301 RMK A01 T00351024  RH  066%=      5-min Rain = 0
KOD1 210244Z 12010KT 04/M02 A301 RMK A01 T00351024  RH  065%=      5-min Rain = 0
KOD1 210245Z 11011KT 04/M02 A301 RMK A01 T00351024  RH  065%=      5-min Rain = 0
KOD1 210246Z 12011KT 04/M02 A301 RMK A01 T00351024  RH  065%=      5-min Rain = 0
KOD1 210247Z 11011KT 04/M02 A301 RMK A01 T00351024  RH  065%=      5-min Rain = 0
KOD1 210248Z 12011KT 04/M02 A301 RMK A01 T00351024  RH  065%=      5-min Rain = 0
KOD1 210249Z 12011KT 04/M02 A301 RMK A01 T00351024  RH  065%=      5-min Rain = 0
KOD1 210250Z 12011KT 04/M02 A3009 RMK A01 T00351024  RH  065%=      5-min Rain = 0
KOD1 210251Z 12011KT 03/M02 A3009 RMK A01 T00341024  RH  065%=      5-min Rain = 0
KOD1 210252Z 12012KT 03/M02 A3009 RMK A01 T00341024  RH  066%=      5-min Rain = 0
KOD1 210253Z 12012KT 03/M02 A3009 RMK A01 T00341024  RH  066%=      5-min Rain = 0
KOD1 210254Z 12013KT 03/M02 A3009 RMK A01 T00341024  RH  066%=      5-min Rain = 0
KOD1 210255Z 12012KT 03/M02 A3009 RMK A01 T00341024  RH  066%=      5-min Rain = 0
KOD1 210256Z 12012KT 03/M03 A3009 RMK A01 T00341025  RH  066%=      5-min Rain = 0
KOD1 210257Z 12011KT 03/M03 A3009 RMK A01 T00331025  RH  066%=      5-min Rain = 0
KOD1 210258Z 12011KT 03/M03 A3009 RMK A01 T00331025  RH  066%=      5-min Rain = 0
KOD1 210259Z 12012KT 03/M03 A3009 RMK A01 T00331025  RH  066%=      5-min Rain = 0
KOD1 210300Z 12012KT 03/M03 A3009 RMK A01 T00331025  RH  066%=      5-min Rain = 0
KOD1 210301Z 12011KT 03/M03 A3009 RMK A01 T00331025  RH  066%=      5-min Rain = 0
KOD1 210302Z 12010KT 03/M03 A3008 RMK A01 T00321025  RH  066%=      5-min Rain = 0
KOD1 210303Z 12012KT 03/M03 A3008 RMK A01 T00321025  RH  066%=      5-min Rain = 0
KOD1 210304Z 12012KT 03/M03 A3009 RMK A01 T00331025  RH  066%=      5-min Rain = 0
KOD1 210305Z 12012KT 03/M03 A3008 RMK A01 T00331025  RH  066%=      5-min Rain = 0
KOD1 210306Z 12012KT 03/M03 A3008 RMK A01 T00321025  RH  066%=      5-min Rain = 0
KOD1 210307Z 12012KT 03/M03 A3009 RMK A01 T00321025  RH  066%=      5-min Rain = 0
KOD1 210308Z 12012KT 03/M03 A3009 RMK A01 T00331025  RH  066%=      5-min Rain = 0
KOD1 210309Z 12012KT 03/M03 A3008 RMK A01 T00331025  RH  066%=      5-min Rain = 0
KOD1 210310Z 12012KT 03/M03 A3008 RMK A01 T00331025  RH  066%=      5-min Rain = 0
KOD1 210311Z 12012KT 03/M03 A3008 RMK A01 T00331025  RH  066%=      5-min Rain = 0
KOD1 210312Z 12011KT 03/M03 A3008 RMK A01 T00321025  RH  066%=      5-min Rain = 0
KOD1 210313Z 12012KT 03/M03 A3008 RMK A01 T00321025  RH  066%=      5-min Rain = 0
KOD1 210314Z 12013KT 03/M03 A3008 RMK A01 T00321026  RH  066%=      5-min Rain = 0
KOD1 210315Z 12012KT 03/M03 A3008 RMK A01 T00321026  RH  066%=      5-min Rain = 0
KOD1 210316Z 12012KT 03/M03 A3008 RMK A01 T00321026  RH  066%=      5-min Rain = 0
KOD1 210317Z 12012KT 03/M03 A3008 RMK A01 T00321026  RH  066%=      5-min Rain = 0
KOD1 210318Z 12011KT 03/M03 A3008 RMK A01 T00321026  RH  066%=      5-min Rain = 0
KOD1 210319Z 12011KT 03/M03 A3008 RMK A01 T00321026  RH  066%=      5-min Rain = 0
KOD1 210320Z 12011KT 03/M03 A3008 RMK A01 T00321026  RH  066%=      5-min Rain = 0
KOD1 210321Z 12012KT 03/M03 A3008 RMK A01 T00321026  RH  066%=      5-min Rain = 0
KOD1 210322Z 12011KT 03/M03 A3008 RMK A01 T00321026  RH  066%=      5-min Rain = 0
KOD1 210323Z 12011KT 03/M03 A3008 RMK A01 T00321026  RH  066%=      5-min Rain = 0
KOD1 210324Z 12011KT 03/M03 A3008 RMK A01 T00321026  RH  066%=      5-min Rain = 0
KOD1 210325Z 12010KT 03/M03 A3008 RMK A01 T00321026  RH  066%=      5-min Rain = 0
KOD1 210326Z 12010KT 03/M03 A3008 RMK A01 T00321026  RH  066%=      5-min Rain = 0
KOD1 210327Z 12010KT 03/M03 A3008 RMK A01 T00311027  RH  066%=      5-min Rain = 0
KOD1 210328Z 12010KT 03/M03 A3008 RMK A01 T00311026  RH  066%=      5-min Rain = 0
KOD1 210329Z 12010KT 03/M03 A3008 RMK A01 T00311027  RH  066%=      5-min Rain = 0
KOD1 210330Z 12010KT 03/M03 A3008 RMK A01 T00311026  RH  066%=      5-min Rain = 0
KOD1 210331Z 12009KT 03/M03 A3008 RMK A01 T00311027  RH  066%=      5-min Rain = 0
KOD1 210332Z 12010KT 03/M03 A3008 RMK A01 T00301026  RH  066%=      5-min Rain = 0
KOD1 210333Z 12010KT 03/M03 A3008 RMK A01 T00301026  RH  066%=      5-min Rain = 0
KOD1 210334Z 12010KT 03/M03 A3008 RMK A01 T00301027  RH  066%=      5-min Rain = 0
KOD1 210335Z 12011KT 03/M03 A3008 RMK A01 T00301027  RH  066%=      5-min Rain = 0
KOD1 210336Z 12010KT 03/M03 A3008 RMK A01 T00301027  RH  067%=      5-min Rain = 0
KOD1 210337Z 12011KT 03/M03 A3008 RMK A01 T00291027  RH  067%=      5-min Rain = 0
KOD1 210338Z 12010KT 03/M03 A3008 RMK A01 T00291027  RH  067%=      5-min Rain = 0
KOD1 210339Z 12011KT 03/M03 A3008 RMK A01 T00291027  RH  067%=      5-min Rain = 0
KOD1 210340Z 12011KT 03/M03 A3008 RMK A01 T00291027  RH  067%=      5-min Rain = 0
KOD1 210341Z 12010KT 03/M03 A3008 RMK A01 T00291027  RH  067%=      5-min Rain = 0
KOD1 210342Z 12011KT 03/M03 A3007 RMK A01 T00291027  RH  067%=      5-min Rain = 0
KOD1 210343Z 12010KT 03/M03 A3007 RMK A01 T00291027  RH  067%=      5-min Rain = 0
KOD1 210344Z 12010KT 03/M03 A3007 RMK A01 T00281027  RH  067%=      5-min Rain = 0
KOD1 210345Z 12010KT 03/M03 A3007 RMK A01 T00281027  RH  067%=      5-min Rain = 0
KOD1 210346Z 12010KT 03/M03 A3007 RMK A01 T00281027  RH  067%=      5-min Rain = 0
KOD1 210347Z 12011KT 03/M03 A3007 RMK A01 T00281027  RH  067%=      5-min Rain = 0
KOD1 210348Z 12011KT 03/M03 A3007 RMK A01 T00281028  RH  067%=      5-min Rain = 0
KOD1 210349Z 12011KT 03/M03 A3007 RMK A01 T00281028  RH  067%=      5-min Rain = 0
KOD1 210350Z 12009KT 03/M03 A3007 RMK A01 T00271027  RH  067%=      5-min Rain = 0
KOD1 210351Z 13011KT 03/M03 A3007 RMK A01 T00271028  RH  067%=      5-min Rain = 0
KOD1 210352Z 12010KT 03/M03 A3007 RMK A01 T00271028  RH  067%=      5-min Rain = 0
KOD1 210353Z 13011KT 03/M03 A3007 RMK A01 T00281028  RH  067%=      5-min Rain = 0
KOD1 210354Z 12010KT 03/M03 A3007 RMK A01 T00291028  RH  066%=      5-min Rain = 0
KOD1 210355Z 12010KT 03/M03 A3007 RMK A01 T00281028  RH  066%=      5-min Rain = 0
KOD1 210356Z 12011KT 03/M03 A3007 RMK A01 T00291028  RH  066%=      5-min Rain = 0
KOD1 210357Z 13012KT 03/M03 A3007 RMK A01 T00291028  RH  066%=      5-min Rain = 0
KOD1 210358Z 12011KT 03/M03 A3007 RMK A01 T00291028  RH  066%=      5-min Rain = 0
KOD1 210359Z 12011KT 03/M03 A3007 RMK A01 T00301029  RH  065%=      5-min Rain = 0
KOD1 210400Z 12011KT 03/M03 A3007 RMK A01 T00301029  RH  065%=      5-min Rain = 0
KOD1 210401Z 12010KT 03/M03 A3007 RMK A01 T00301029  RH  065%=      5-min Rain = 0
KOD1 210402Z 13010KT 03/M03 A3007 RMK A01 T00301029  RH  065%=      5-min Rain = 0
KOD1 210403Z 13011KT 03/M03 A3007 RMK A01 T00301029  RH  065%=      5-min Rain = 0
KOD1 210404Z 13012KT 03/M03 A3007 RMK A01 T00301029  RH  065%=      5-min Rain = 0
KOD1 210405Z 13011KT 03/M03 A3006 RMK A01 T00311029  RH  065%=      5-min Rain = 0
KOD1 210406Z 12011KT 03/M03 A3006 RMK A01 T00311029  RH  065%=      5-min Rain = 0
KOD1 210407Z 12012KT 03/M03 A3006 RMK A01 T00321030  RH  064%=      5-min Rain = 0
KOD1 210408Z 13012KT 03/M03 A3006 RMK A01 T00321030  RH  064%=      5-min Rain = 0
KOD1 210409Z 12010KT 03/M03 A3006 RMK A01 T00331030  RH  064%=      5-min Rain = 0
KOD1 210410Z 13011KT 03/M03 A3006 RMK A01 T00331030  RH  064%=      5-min Rain = 0
KOD1 210411Z 13012KT 03/M03 A3006 RMK A01 T00321029  RH  064%=      5-min Rain = 0
KOD1 210412Z 13011KT 03/M03 A3006 RMK A01 T00331030  RH  064%=      5-min Rain = 0
KOD1 210413Z 13012KT 03/M03 A3006 RMK A01 T00331030  RH  064%=      5-min Rain = 0
KOD1 210414Z 13011KT 03/M03 A3006 RMK A01 T00331030  RH  064%=      5-min Rain = 0
KOD1 210415Z 13010KT 03/M03 A3006 RMK A01 T00331030  RH  064%=      5-min Rain = 0
KOD1 210416Z 13012KT 03/M03 A3006 RMK A01 T00331030  RH  064%=      5-min Rain = 0
KOD1 210417Z 13012KT 03/M03 A3006 RMK A01 T00341030  RH  063%=      5-min Rain = 0
KOD1 210418Z 13011KT 03/M03 A3006 RMK A01 T00341030  RH  063%=      5-min Rain = 0
KOD1 210419Z 13011KT 03/M03 A3006 RMK A01 T00341030  RH  063%=      5-min Rain = 0
KOD1 210420Z 13011KT 03/M03 A3006 RMK A01 T00341030  RH  063%=      5-min Rain = 0
KOD1 210421Z 13012KT 04/M03 A3006 RMK A01 T00351030  RH  063%=      5-min Rain = 0
KOD1 210422Z 13012KT 04/M03 A3006 RMK A01 T00351030  RH  062%=      5-min Rain = 0
KOD1 210423Z 13013KT 04/M03 A3006 RMK A01 T00351030  RH  062%=      5-min Rain = 0
KOD1 210424Z 13011KT 04/M03 A3006 RMK A01 T00361030  RH  062%=      5-min Rain = 0
KOD1 210425Z 13012KT 04/M03 A3006 RMK A01 T00361030  RH  062%=      5-min Rain = 0
KOD1 210426Z 13013KT 04/M03 A3006 RMK A01 T00371030  RH  062%=      5-min Rain = 0
KOD1 210427Z 13013KT 04/M03 A3006 RMK A01 T00371030  RH  062%=      5-min Rain = 0
KOD1 210428Z 13012KT 04/M03 A3006 RMK A01 T00371030  RH  062%=      5-min Rain = 0
KOD1 210429Z 13012KT 04/M03 A3006 RMK A01 T00361030  RH  062%=      5-min Rain = 0
KOD1 210430Z 13012KT 04/M03 A3006 RMK A01 T00361030  RH  062%=      5-min Rain = 0
KOD1 210431Z 13012KT 04/M03 A3006 RMK A01 T00361030  RH  062%=      5-min Rain = 0
KOD1 210432Z 13012KT 04/M03 A3006 RMK A01 T00361030  RH  062%=      5-min Rain = 0
KOD1 210433Z 13013KT 04/M03 A3006 RMK A01 T00371030  RH  062%=      5-min Rain = 0
KOD1 210434Z 13012KT 04/M03 A3006 RMK A01 T00371030  RH  062%=      5-min Rain = 0
KOD1 210435Z 14012KT 04/M03 A3006 RMK A01 T00371029  RH  062%=      5-min Rain = 0
KOD1 210436Z 13012KT 04/M03 A3006 RMK A01 T00371029  RH  062%=      5-min Rain = 0
KOD1 210437Z 13012KT 04/M03 A3006 RMK A01 T00371030  RH  062%=      5-min Rain = 0
KOD1 210438Z 13012KT 04/M03 A3006 RMK A01 T00371029  RH  062%=      5-min Rain = 0
KOD1 210439Z 13013KT 04/M03 A3006 RMK A01 T00371029  RH  062%=      5-min Rain = 0
KOD1 210440Z 13013KT 04/M03 A3006 RMK A01 T00371029  RH  062%=      5-min Rain = 0
KOD1 210441Z 13013KT 04/M03 A3006 RMK A01 T00371029  RH  062%=      5-min Rain = 0
KOD1 210442Z 13012KT 04/M03 A3006 RMK A01 T00371029  RH  062%=      5-min Rain = 0
KOD1 210443Z 13012KT 04/M03 A3006 RMK A01 T00371029  RH  062%=      5-min Rain = 0
KOD1 210444Z 13012KT 04/M03 A3006 RMK A01 T00371029  RH  062%=      5-min Rain = 0
KOD1 210445Z 13012KT 04/M03 A3006 RMK A01 T00371029  RH  062%=      5-min Rain = 0
KOD1 210446Z 13013KT 04/M03 A3006 RMK A01 T00371029  RH  062%=      5-min Rain = 0
KOD1 210447Z 13012KT 04/M03 A3006 RMK A01 T00371029  RH  062%=      5-min Rain = 0
KOD1 210448Z 13011KT 04/M03 A3006 RMK A01 T00361029  RH  062%=      5-min Rain = 0
KOD1 210449Z 13012KT 04/M03 A3006 RMK A01 T00361029  RH  063%=      5-min Rain = 0
KOD1 210450Z 13013KT 04/M03 A3006 RMK A01 T00361028  RH  063%=      5-min Rain = 0
KOD1 210451Z 13011KT 04/M03 A3006 RMK A01 T00361028  RH  063%=      5-min Rain = 0
KOD1 210452Z 13011KT 04/M03 A3006 RMK A01 T00361028  RH  063%=      5-min Rain = 0
KOD1 210453Z 13011KT 04/M03 A3006 RMK A01 T00361028  RH  063%=      5-min Rain = 0
KOD1 210454Z 13011KT 04/M03 A3006 RMK A01 T00361028  RH  063%=      5-min Rain = 0
KOD1 210455Z 13013KT 04/M03 A3006 RMK A01 T00371028  RH  063%=      5-min Rain = 0
KOD1 210456Z 13012KT 04/M03 A3006 RMK A01 T00371028  RH  062%=      5-min Rain = 0
KOD1 210457Z 13013KT 04/M03 A3005 RMK A01 T00371028  RH  063%=      5-min Rain = 0
KOD1 210458Z 13013KT 04/M03 A3005 RMK A01 T00371028  RH  063%=      5-min Rain = 0
KOD1 210459Z 13011KT 04/M03 A3005 RMK A01 T00371028  RH  062%=      5-min Rain = 0
KOD1 210500Z 13011KT 04/M03 A3005 RMK A01 T00371028  RH  063%=      5-min Rain = 0
KOD1 210501Z 13012KT 04/M03 A3005 RMK A01 T00371027  RH  063%=      5-min Rain = 0
KOD1 210502Z 13013KT 04/M03 A3005 RMK A01 T00371027  RH  063%=      5-min Rain = 0
KOD1 210503Z 13012KT 04/M03 A3005 RMK A01 T00381027  RH  062%=      5-min Rain = 0
KOD1 210504Z 13013KT 04/M03 A3005 RMK A01 T00381027  RH  063%=      5-min Rain = 0
KOD1 210505Z 13013KT 04/M03 A3005 RMK A01 T00381027  RH  062%=      5-min Rain = 0
KOD1 210506Z 13012KT 04/M03 A3005 RMK A01 T00381027  RH  063%=      5-min Rain = 0
KOD1 210507Z 13014KT 04/M03 A3005 RMK A01 T00381027  RH  062%=      5-min Rain = 0
KOD1 210508Z 13012KT 04/M03 A3005 RMK A01 T00391027  RH  062%=      5-min Rain = 0
KOD1 210509Z 13013KT 04/M03 A3005 RMK A01 T00381027  RH  062%=      5-min Rain = 0
KOD1 210510Z 13013KT 04/M03 A3005 RMK A01 T00381027  RH  062%=      5-min Rain = 0
KOD1 210511Z 13014KT 04/M03 A3005 RMK A01 T00381027  RH  062%=      5-min Rain = 0
KOD1 210512Z 13012KT 04/M03 A3005 RMK A01 T00381027  RH  062%=      5-min Rain = 0
KOD1 210513Z 13012KT 04/M03 A3005 RMK A01 T00381027  RH  062%=      5-min Rain = 0
KOD1 210514Z 13013KT 04/M03 A3005 RMK A01 T00381027  RH  063%=      5-min Rain = 0
KOD1 210515Z 13012KT 04/M03 A3005 RMK A01 T00381027  RH  062%=      5-min Rain = 0
KOD1 210516Z 13012KT 04/M03 A3005 RMK A01 T00381027  RH  063%=      5-min Rain = 0
KOD1 210517Z 13012KT 04/M03 A3005 RMK A01 T00381027  RH  063%=      5-min Rain = 0
KOD1 210518Z 13012KT 04/M03 A3005 RMK A01 T00381027  RH  063%=      5-min Rain = 0
KOD1 210519Z 13011KT 04/M03 A3005 RMK A01 T00381027  RH  063%=      5-min Rain = 0
KOD1 210520Z 13012KT 04/M03 A3005 RMK A01 T00381026  RH  063%=      5-min Rain = 0
KOD1 210521Z 13011KT 04/M03 A3005 RMK A01 T00381026  RH  063%=      5-min Rain = 0
KOD1 210522Z 13011KT 04/M03 A3005 RMK A01 T00381027  RH  063%=      5-min Rain = 0
KOD1 210523Z 13012KT 04/M03 A3005 RMK A01 T00381026  RH  063%=      5-min Rain = 0
KOD1 210524Z 13013KT 04/M03 A3005 RMK A01 T00381026  RH  063%=      5-min Rain = 0
KOD1 210525Z 13013KT 04/M03 A3005 RMK A01 T00381026  RH  063%=      5-min Rain = 0
KOD1 210526Z 13012KT 04/M03 A3005 RMK A01 T00381026  RH  063%=      5-min Rain = 0
KOD1 210527Z 13012KT 04/M03 A3005 RMK A01 T00371026  RH  063%=      5-min Rain = 0
KOD1 210528Z 13012KT 04/M03 A3005 RMK A01 T00371026  RH  063%=      5-min Rain = 0
KOD1 210529Z 13013KT 04/M03 A3005 RMK A01 T00371026  RH  063%=      5-min Rain = 0
KOD1 210530Z 13011KT 04/M03 A3006 RMK A01 T00371026  RH  063%=      5-min Rain = 0
KOD1 210531Z 13012KT 04/M03 A3006 RMK A01 T00371026  RH  063%=      5-min Rain = 0
KOD1 210532Z 13011KT 04/M03 A3006 RMK A01 T00371026  RH  064%=      5-min Rain = 0
KOD1 210533Z 13012KT 04/M03 A3006 RMK A01 T00361026  RH  064%=      5-min Rain = 0
KOD1 210534Z 13012KT 04/M03 A3006 RMK A01 T00361026  RH  064%=      5-min Rain = 0
KOD1 210535Z 13011KT 04/M03 A3006 RMK A01 T00361026  RH  064%=      5-min Rain = 0
KOD1 210536Z 13010KT 04/M03 A3006 RMK A01 T00351026  RH  064%=      5-min Rain = 0
KOD1 210537Z 13012KT 04/M03 A3006 RMK A01 T00351026  RH  064%=      5-min Rain = 0
KOD1 210538Z 13012KT 04/M03 A3006 RMK A01 T00351026  RH  064%=      5-min Rain = 0
KOD1 210539Z 13011KT 04/M03 A3006 RMK A01 T00351026  RH  064%=      5-min Rain = 0
KOD1 210540Z 12011KT 04/M03 A3006 RMK A01 T00351026  RH  064%=      5-min Rain = 0
KOD1 210541Z 12011KT 04/M03 A3006 RMK A01 T00351025  RH  065%=      5-min Rain = 0
KOD1 210542Z 13011KT 04/M03 A3006 RMK A01 T00351025  RH  065%=      5-min Rain = 0
KOD1 210543Z 13011KT 04/M03 A3006 RMK A01 T00351025  RH  065%=      5-min Rain = 0
KOD1 210544Z 12011KT 04/M03 A3006 RMK A01 T00351025  RH  064%=      5-min Rain = 0
KOD1 210545Z 13010KT 04/M03 A3006 RMK A01 T00351026  RH  064%=      5-min Rain = 0
KOD1 210546Z 13011KT 04/M03 A3006 RMK A01 T00351026  RH  065%=      5-min Rain = 0
KOD1 210547Z 12010KT 03/M03 A3006 RMK A01 T00341025  RH  065%=      5-min Rain = 0
KOD1 210548Z 13010KT 03/M03 A3006 RMK A01 T00341025  RH  065%=      5-min Rain = 0
KOD1 210549Z 12009G14KT 03/M03 A3006 RMK A01 T00341025  RH  065%=      5-min Rain = 0
KOD1 210550Z 12011KT 03/M03 A3006 RMK A01 T00341025  RH  065%=      5-min Rain = 0
KOD1 210551Z 13011KT 03/M03 A3006 RMK A01 T00341026  RH  065%=      5-min Rain = 0
KOD1 210552Z 12010KT 03/M03 A3006 RMK A01 T00331025  RH  065%=      5-min Rain = 0
KOD1 210553Z 13010KT 03/M03 A3006 RMK A01 T00331025  RH  066%=      5-min Rain = 0
KOD1 210554Z 12011KT 03/M03 A3006 RMK A01 T00331025  RH  066%=      5-min Rain = 0
KOD1 210555Z 13010KT 03/M03 A3006 RMK A01 T00331025  RH  066%=      5-min Rain = 0
KOD1 210556Z 13011KT 03/M03 A3006 RMK A01 T00321025  RH  066%=      5-min Rain = 0
KOD1 210557Z 12009KT 03/M03 A3006 RMK A01 T00321025  RH  066%=      5-min Rain = 0
KOD1 210558Z 13010KT 03/M03 A3006 RMK A01 T00321025  RH  066%=      5-min Rain = 0
KOD1 210559Z 12009KT 03/M03 A3006 RMK A01 T00321026  RH  066%=      5-min Rain = 0

Page generated in 0.0339 seconds.